CCA898 LEMD-ZBAA

Flight info

Callsign CCA898
Flight time 11h 12m
Altitude 34000
Route PINAR DCT BCN/N0491F350 DCT ORKUM/N0489F360 DCT ELSAG DCT POKAV/N0490F350 DCT SOR DCT PEREN/N0489F370 DCT ALX DCT EKI DCT INB DCT SIN DCT ROLIN N644 ODILI DCT BARAD M747 SUBUT T916 BALUN/K0913F370 T916 GITIM/K0896F390 T916 PIGAL M610 RULAD/K0895S1190 A343 POSOT B215 FKG W188 LIKMI W270 DKO W69 GUVBA GUVBA9Y
Aircraft B789/H-SDE1E2E3FGHIJ2J3J4J5M1RWXY/LB1D1

Departure

Time 2026-05-06 04:33
Airport Adolfo Suárez Madrid–Barajas Airport (LEMD)

Arrival

Time 2026-05-06 15:45
Airport Beijing Capital International Airport (ZBAA)
Time Latitude Longitude Altitude Speed Heading
2026-05-06 02:55 40.46285 -3.56909 1976 ft 0 kts 301°
2026-05-06 04:20 40.46280 -3.56898 1981 ft 3 kts 301°
2026-05-06 04:20 40.46273 -3.56882 1980 ft 3 kts 301°
2026-05-06 04:20 40.46263 -3.56861 1978 ft 3 kts 303°
2026-05-06 04:21 40.46248 -3.56840 1980 ft 3 kts 338°
2026-05-06 04:21 40.46234 -3.56836 1978 ft 3 kts 12°
2026-05-06 04:21 40.46217 -3.56844 1977 ft 3 kts 33°
2026-05-06 04:21 40.46210 -3.56850 1980 ft 1 kts 36°
2026-05-06 04:22 40.46193 -3.56867 1980 ft 3 kts 36°
2026-05-06 04:22 40.46185 -3.56874 1980 ft 1 kts 36°
2026-05-06 04:22 40.46184 -3.56874 1976 ft 0 kts 36°
2026-05-06 04:25 40.46187 -3.56872 1976 ft 2 kts 36°
2026-05-06 04:25 40.46207 -3.56853 1980 ft 5 kts 36°
2026-05-06 04:26 40.46249 -3.56815 1980 ft 9 kts 33°
2026-05-06 04:26 40.46313 -3.56770 1978 ft 12 kts 23°
2026-05-06 04:26 40.46416 -3.56724 1980 ft 19 kts 11°
2026-05-06 04:26 40.46573 -3.56711 1982 ft 26 kts
2026-05-06 04:27 40.46766 -3.56695 1981 ft 21 kts 18°
2026-05-06 04:27 40.46815 -3.56586 1983 ft 11 kts 51°
2026-05-06 04:27 40.46892 -3.56548 1983 ft 14 kts
2026-05-06 04:27 40.47005 -3.56553 1985 ft 18 kts 351°
2026-05-06 04:28 40.47132 -3.56611 1986 ft 21 kts 326°
2026-05-06 04:28 40.47255 -3.56736 1992 ft 24 kts 321°
2026-05-06 04:28 40.47394 -3.56880 1996 ft 27 kts 322°
2026-05-06 04:28 40.47552 -3.57041 1999 ft 30 kts 322°
2026-05-06 04:29 40.47725 -3.57216 2003 ft 33 kts 322°
2026-05-06 04:29 40.47914 -3.57407 2006 ft 36 kts 323°
2026-05-06 04:29 40.48122 -3.57619 2003 ft 39 kts 322°
2026-05-06 04:29 40.48350 -3.57849 1997 ft 43 kts 323°
2026-05-06 04:30 40.48601 -3.58051 2005 ft 41 kts 330°
2026-05-06 04:30 40.48866 -3.58069 2006 ft 39 kts
2026-05-06 04:30 40.49135 -3.58051 2008 ft 36 kts 359°
2026-05-06 04:30 40.49258 -3.58004 2005 ft 8 kts 79°
2026-05-06 04:31 40.49249 -3.57907 2003 ft 15 kts 97°
2026-05-06 04:31 40.49240 -3.57738 1996 ft 22 kts 84°
2026-05-06 04:31 40.49276 -3.57532 1992 ft 23 kts 72°
2026-05-06 04:31 40.49348 -3.57441 1989 ft 10 kts 358°
2026-05-06 04:32 40.49457 -3.57446 1988 ft 34 kts 358°
2026-05-06 04:32 40.49915 -3.57456 1994 ft 97 kts 360°
2026-05-06 04:32 40.50788 -3.57462 2001 ft 152 kts 360°
2026-05-06 04:32 40.52016 -3.57475 2058 ft 196 kts
2026-05-06 04:33 40.53415 -3.57494 2787 ft 200 kts 359°
2026-05-06 04:33 40.54805 -3.57522 3815 ft 205 kts
2026-05-06 04:33 40.56297 -3.57127 4094 ft 231 kts 16°
2026-05-06 04:33 40.57825 -3.56470 4915 ft 231 kts 17°
2026-05-06 04:34 40.59381 -3.55851 5598 ft 236 kts 15°
2026-05-06 04:34 40.60973 -3.55264 6309 ft 240 kts 14°
2026-05-06 04:34 40.62592 -3.54663 6986 ft 244 kts 14°
2026-05-06 04:34 40.64249 -3.54192 7615 ft 245 kts
2026-05-06 04:35 40.65963 -3.54098 8311 ft 247 kts
2026-05-06 04:35 40.67693 -3.53914 8960 ft 253 kts
2026-05-06 04:35 40.69451 -3.53628 9698 ft 255 kts 13°
2026-05-06 04:35 40.71033 -3.52343 9787 ft 288 kts 51°
2026-05-06 04:36 40.72217 -3.50126 10278 ft 299 kts 55°
2026-05-06 04:36 40.73396 -3.47828 10651 ft 319 kts 55°
2026-05-06 04:36 40.74697 -3.45303 10790 ft 346 kts 54°
2026-05-06 04:36 40.76111 -3.42588 10908 ft 372 kts 54°
2026-05-06 04:37 40.77609 -3.39709 11467 ft 381 kts 54°
2026-05-06 04:37 40.79074 -3.36879 12167 ft 387 kts 54°
2026-05-06 04:37 40.80603 -3.33921 12895 ft 393 kts 54°
2026-05-06 04:37 40.82135 -3.30960 13605 ft 398 kts 54°
2026-05-06 04:38 40.83734 -3.27870 14245 ft 404 kts 54°
2026-05-06 04:38 40.85234 -3.24705 14838 ft 411 kts 65°
2026-05-06 04:38 40.86115 -3.21095 15423 ft 417 kts 75°
2026-05-06 04:38 40.86855 -3.17365 16021 ft 422 kts 76°
2026-05-06 04:39 40.87576 -3.13574 16610 ft 428 kts 76°
2026-05-06 04:39 40.88325 -3.09748 17219 ft 432 kts 75°
2026-05-06 04:39 40.89099 -3.05883 17811 ft 438 kts 75°
2026-05-06 04:39 40.89873 -3.01969 18375 ft 443 kts 76°
2026-05-06 04:40 40.90633 -2.98058 18860 ft 448 kts 76°
2026-05-06 04:40 40.91403 -2.94106 19323 ft 453 kts 76°
2026-05-06 04:40 40.92207 -2.89998 19814 ft 458 kts 76°
2026-05-06 04:40 40.93009 -2.85898 20273 ft 463 kts 76°
2026-05-06 04:41 40.93814 -2.81753 20728 ft 468 kts 76°
2026-05-06 04:41 40.94623 -2.77573 21187 ft 472 kts 76°
2026-05-06 04:41 40.95443 -2.73345 21596 ft 477 kts 76°
2026-05-06 04:41 40.96269 -2.69070 22043 ft 482 kts 76°
2026-05-06 04:42 40.97102 -2.64750 22451 ft 486 kts 76°
2026-05-06 04:42 40.97929 -2.60383 22871 ft 490 kts 79°
2026-05-06 04:42 40.98398 -2.55909 23222 ft 494 kts 85°
2026-05-06 04:42 40.98795 -2.51364 23616 ft 498 kts 85°
2026-05-06 04:43 40.99203 -2.46789 23959 ft 502 kts 85°
2026-05-06 04:43 40.99619 -2.42181 24304 ft 505 kts 85°
2026-05-06 04:43 41.00049 -2.37333 24627 ft 509 kts 85°
2026-05-06 04:43 41.00438 -2.32867 24950 ft 513 kts 85°
2026-05-06 04:44 41.00849 -2.28163 25259 ft 516 kts 85°
2026-05-06 04:44 41.01264 -2.23426 25577 ft 520 kts 85°
2026-05-06 04:44 41.01678 -2.18665 25889 ft 523 kts 85°
2026-05-06 04:44 41.02088 -2.13911 26195 ft 526 kts 85°
2026-05-06 04:45 41.02502 -2.09083 26487 ft 530 kts 85°
2026-05-06 04:45 41.02923 -2.04156 26797 ft 533 kts 85°
2026-05-06 04:45 41.03341 -1.99256 27098 ft 536 kts 85°
2026-05-06 04:45 41.03757 -1.94332 27402 ft 540 kts 86°
2026-05-06 04:46 41.04168 -1.89444 27670 ft 543 kts 86°
2026-05-06 04:46 41.04585 -1.84461 27966 ft 546 kts 86°
2026-05-06 04:46 41.05003 -1.79443 28244 ft 549 kts 86°
2026-05-06 04:46 41.05421 -1.74409 28513 ft 551 kts 86°
2026-05-06 04:47 41.05838 -1.69335 28756 ft 555 kts 86°
2026-05-06 04:47 41.06256 -1.64245 29054 ft 557 kts 86°
2026-05-06 04:47 41.06673 -1.59120 29333 ft 560 kts 86°
2026-05-06 04:47 41.07091 -1.53967 29601 ft 563 kts 86°
2026-05-06 04:48 41.07508 -1.48789 29820 ft 566 kts 86°
2026-05-06 04:48 41.07925 -1.43584 30067 ft 569 kts 86°
2026-05-06 04:48 41.08343 -1.38346 30295 ft 571 kts 86°
2026-05-06 04:48 41.08758 -1.33105 30545 ft 573 kts 86°
2026-05-06 04:49 41.09173 -1.27836 30753 ft 575 kts 86°
2026-05-06 04:49 41.09586 -1.22555 31030 ft 576 kts 86°
2026-05-06 04:49 41.09997 -1.17290 31385 ft 574 kts 86°
2026-05-06 04:49 41.10404 -1.12026 31710 ft 573 kts 86°
2026-05-06 04:50 41.10808 -1.06765 32002 ft 573 kts 86°
2026-05-06 04:50 41.11204 -1.01572 32312 ft 572 kts 86°
2026-05-06 04:50 41.11608 -0.96267 32645 ft 571 kts 86°
2026-05-06 04:50 41.12004 -0.91017 32958 ft 570 kts 86°
2026-05-06 04:51 41.12392 -0.85850 33251 ft 570 kts 86°
2026-05-06 04:51 41.12787 -0.80551 33584 ft 569 kts 86°
2026-05-06 04:51 41.13168 -0.75409 33910 ft 568 kts 87°
2026-05-06 04:52 41.13937 -0.64925 33960 ft 570 kts 87°
2026-05-06 04:52 41.14693 -0.54519 33969 ft 564 kts 87°
2026-05-06 04:53 41.15433 -0.44155 33956 ft 564 kts 87°
2026-05-06 04:53 41.16166 -0.33794 33957 ft 563 kts 87°
2026-05-06 04:54 41.16893 -0.23372 33954 ft 563 kts 87°
2026-05-06 04:54 41.17609 -0.12974 33955 ft 562 kts 87°
2026-05-06 04:55 41.18306 -0.02706 33953 ft 562 kts 88°
2026-05-06 04:55 41.18656 0.02521 34065 ft 559 kts 86°
2026-05-06 04:55 41.18998 0.07613 33967 ft 548 kts 86°
2026-05-06 04:56 41.19653 0.17508 33946 ft 542 kts 86°
2026-05-06 04:56 41.20306 0.27546 33952 ft 547 kts 86°
2026-05-06 04:57 41.20956 0.37604 33951 ft 547 kts 86°
2026-05-06 04:57 41.21491 0.46049 33945 ft 547 kts 86°
2026-05-06 04:58 41.22121 0.56053 33950 ft 547 kts 87°
2026-05-06 04:58 41.22737 0.66026 33945 ft 546 kts 87°
2026-05-06 04:59 41.23348 0.76045 33931 ft 546 kts 87°
2026-05-06 04:59 41.23957 0.86160 33916 ft 546 kts 87°
2026-05-06 05:00 41.24552 0.96210 33910 ft 546 kts 87°
2026-05-06 05:00 41.25139 1.06258 33909 ft 546 kts 88°
2026-05-06 05:01 41.25717 1.16314 33907 ft 546 kts 88°
2026-05-06 05:01 41.26286 1.26373 33905 ft 546 kts 88°
2026-05-06 05:02 41.26846 1.36420 33914 ft 545 kts 88°
2026-05-06 05:02 41.27398 1.46482 33912 ft 545 kts 88°
2026-05-06 05:03 41.27944 1.56601 33914 ft 545 kts 88°
2026-05-06 05:03 41.28477 1.66639 33908 ft 545 kts 88°
2026-05-06 05:04 41.28999 1.76647 33910 ft 545 kts 88°
2026-05-06 05:04 41.29515 1.86697 33903 ft 544 kts 89°
2026-05-06 05:05 41.30022 1.96744 33903 ft 544 kts 89°
2026-05-06 05:05 41.30521 2.06807 33907 ft 545 kts 89°
2026-05-06 05:05 41.30551 2.11826 33947 ft 539 kts 100°
2026-05-06 05:06 41.30052 2.16751 33913 ft 539 kts 102°
2026-05-06 05:06 41.28895 2.26610 33917 ft 539 kts 103°
2026-05-06 05:07 41.27776 2.36416 33915 ft 539 kts 103°
2026-05-06 05:07 41.26623 2.46265 33907 ft 539 kts 103°
2026-05-06 05:08 41.25471 2.56107 33900 ft 539 kts 103°
2026-05-06 05:08 41.24305 2.65968 33895 ft 540 kts 103°
2026-05-06 05:09 41.23131 2.75820 33900 ft 540 kts 104°
2026-05-06 05:09 41.21947 2.85689 33897 ft 541 kts 104°
2026-05-06 05:10 41.20754 2.95553 33891 ft 541 kts 104°
2026-05-06 05:10 41.19553 3.05414 33894 ft 541 kts 104°
2026-05-06 05:11 41.18343 3.15272 33895 ft 540 kts 104°
2026-05-06 05:11 41.17127 3.25116 33893 ft 540 kts 104°
2026-05-06 05:12 41.15903 3.34948 33899 ft 540 kts 105°
2026-05-06 05:12 41.14671 3.44770 33902 ft 539 kts 105°
2026-05-06 05:13 41.13433 3.54582 33901 ft 539 kts 105°
2026-05-06 05:13 41.12188 3.64368 33898 ft 538 kts 105°
2026-05-06 05:14 41.10936 3.74140 33901 ft 537 kts 105°
2026-05-06 05:14 41.09675 3.83918 33905 ft 536 kts 105°
2026-05-06 05:15 41.08412 3.93649 33900 ft 535 kts 105°
2026-05-06 05:15 41.07145 4.03342 33896 ft 533 kts 105°
2026-05-06 05:16 41.05880 4.12949 33897 ft 532 kts 105°
2026-05-06 05:16 41.04603 4.22586 33900 ft 531 kts 105°
2026-05-06 05:17 41.03317 4.32220 33900 ft 530 kts 105°
2026-05-06 05:17 41.02027 4.41830 33896 ft 530 kts 105°
2026-05-06 05:18 41.00728 4.51442 33895 ft 529 kts 105°
2026-05-06 05:18 40.99421 4.61045 33895 ft 529 kts 105°
2026-05-06 05:19 40.98111 4.70616 33894 ft 528 kts 105°
2026-05-06 05:19 40.96794 4.80168 33896 ft 527 kts 105°
2026-05-06 05:20 40.95471 4.89708 33897 ft 527 kts 105°
2026-05-06 05:20 40.94140 4.99240 33893 ft 526 kts 106°
2026-05-06 05:21 40.92806 5.08740 33895 ft 525 kts 106°
2026-05-06 05:21 40.91463 5.18240 33890 ft 525 kts 106°
2026-05-06 05:22 40.90114 5.27728 33900 ft 525 kts 106°
2026-05-06 05:22 40.88769 5.37134 33898 ft 523 kts 106°
2026-05-06 05:23 40.87409 5.46575 33898 ft 523 kts 106°
2026-05-06 05:23 40.85356 5.60733 33903 ft 522 kts 106°
2026-05-06 05:24 40.83983 5.70126 33900 ft 521 kts 106°
2026-05-06 05:24 40.82600 5.79529 33900 ft 521 kts 106°
2026-05-06 05:25 40.81214 5.88908 33898 ft 520 kts 106°
2026-05-06 05:25 40.79822 5.98262 33899 ft 519 kts 106°
2026-05-06 05:26 40.78424 6.07606 33912 ft 518 kts 106°
2026-05-06 05:26 40.77020 6.16936 33896 ft 517 kts 106°
2026-05-06 05:27 40.75622 6.26170 33904 ft 516 kts 106°
2026-05-06 05:27 40.74210 6.35447 33897 ft 515 kts 106°
2026-05-06 05:28 40.72795 6.44687 33900 ft 514 kts 106°
2026-05-06 05:28 40.71372 6.53930 33905 ft 514 kts 106°
2026-05-06 05:29 40.69942 6.63167 33901 ft 514 kts 106°
2026-05-06 05:29 40.68504 6.72402 33902 ft 514 kts 106°
2026-05-06 05:30 40.67059 6.81633 33903 ft 514 kts 106°
2026-05-06 05:30 40.65610 6.90840 33909 ft 513 kts 106°
2026-05-06 05:31 40.64153 7.00048 33906 ft 513 kts 106°
2026-05-06 05:31 40.62691 7.09234 33903 ft 512 kts 106°
2026-05-06 05:32 40.61224 7.18402 33906 ft 511 kts 106°
2026-05-06 05:32 40.59751 7.27562 33910 ft 511 kts 106°
2026-05-06 05:33 40.58275 7.36691 33910 ft 510 kts 106°
2026-05-06 05:33 40.56837 7.45765 33913 ft 511 kts 101°
2026-05-06 05:34 40.56644 7.50459 33932 ft 517 kts 89°
2026-05-06 05:34 40.56989 7.55184 33919 ft 520 kts 87°
2026-05-06 05:34 40.57813 7.64628 33929 ft 519 kts 86°
2026-05-06 05:35 40.58622 7.74058 33929 ft 518 kts 87°
2026-05-06 05:35 40.59421 7.83481 33927 ft 518 kts 87°
2026-05-06 05:36 40.60216 7.92906 33923 ft 518 kts 87°
2026-05-06 05:36 40.60999 8.02330 33919 ft 518 kts 87°
2026-05-06 05:37 40.61652 8.10219 33911 ft 518 kts 87°
2026-05-06 05:37 40.62546 8.21173 33909 ft 518 kts 87°
2026-05-06 05:38 40.63180 8.29010 33904 ft 518 kts 87°
2026-05-06 05:38 40.63936 8.38443 33903 ft 518 kts 88°
2026-05-06 05:39 40.64683 8.47875 33911 ft 518 kts 88°
2026-05-06 05:39 40.65425 8.57334 33908 ft 519 kts 88°
2026-05-06 05:40 40.66160 8.66802 33915 ft 520 kts 88°
2026-05-06 05:40 40.66889 8.76296 33928 ft 521 kts 88°
2026-05-06 05:41 40.67611 8.85800 33925 ft 521 kts 88°
2026-05-06 05:41 40.68320 8.95250 33913 ft 522 kts 88°
2026-05-06 05:42 40.69028 9.04774 33922 ft 522 kts 88°
2026-05-06 05:42 40.69727 9.14293 33921 ft 521 kts 88°
2026-05-06 05:43 40.70419 9.23825 33921 ft 523 kts 88°
2026-05-06 05:43 40.71099 9.33306 33910 ft 523 kts 88°
2026-05-06 05:44 40.71778 9.42879 33910 ft 523 kts 88°
2026-05-06 05:44 40.72448 9.52430 33912 ft 523 kts 88°
2026-05-06 05:45 40.73114 9.62049 33909 ft 523 kts 88°
2026-05-06 05:45 40.73762 9.71533 33908 ft 523 kts 88°
2026-05-06 05:46 40.74408 9.81080 33910 ft 522 kts 88°
2026-05-06 05:46 40.75044 9.90612 33905 ft 521 kts 88°
2026-05-06 05:47 40.75671 10.00133 33911 ft 520 kts 88°
2026-05-06 05:47 40.76291 10.09656 33914 ft 520 kts 88°
2026-05-06 05:48 40.76901 10.19159 33915 ft 520 kts 88°
2026-05-06 05:48 40.77505 10.28678 33917 ft 520 kts 88°
2026-05-06 05:49 40.78096 10.38131 33917 ft 520 kts 88°
2026-05-06 05:49 40.78687 10.47705 33916 ft 521 kts 88°
2026-05-06 05:50 40.79268 10.57233 33924 ft 521 kts 88°
2026-05-06 05:50 40.79841 10.66770 33924 ft 521 kts 88°
2026-05-06 05:51 40.80406 10.76315 33922 ft 521 kts 88°
2026-05-06 05:51 40.80964 10.85862 33930 ft 522 kts 88°
2026-05-06 05:52 40.81512 10.95400 33930 ft 522 kts 88°
2026-05-06 05:52 40.82051 11.04889 33935 ft 521 kts 88°
2026-05-06 05:53 40.82588 11.14499 33940 ft 520 kts 88°
2026-05-06 05:53 40.83109 11.23959 33932 ft 520 kts 88°
2026-05-06 05:54 40.83626 11.33488 33945 ft 519 kts 88°
2026-05-06 05:54 40.83756 11.42983 33985 ft 514 kts 98°
2026-05-06 05:55 40.83035 11.52411 33952 ft 515 kts 98°
2026-05-06 05:55 40.82325 11.61770 33951 ft 515 kts 98°
2026-05-06 05:56 40.81601 11.71169 33960 ft 514 kts 98°
2026-05-06 05:56 40.80869 11.80557 33962 ft 513 kts 98°
2026-05-06 05:57 40.80131 11.89948 33963 ft 513 kts 98°
2026-05-06 05:57 40.79386 11.99318 33964 ft 514 kts 98°
2026-05-06 05:58 40.78634 12.08690 33961 ft 514 kts 98°
2026-05-06 05:58 40.77872 12.18074 33964 ft 515 kts 99°
2026-05-06 05:59 40.77102 12.27465 33961 ft 515 kts 99°
2026-05-06 05:59 40.76327 12.36821 33969 ft 516 kts 99°
2026-05-06 06:00 40.75539 12.46249 33967 ft 517 kts 99°
2026-05-06 06:00 40.74742 12.55679 33970 ft 517 kts 99°
2026-05-06 06:01 40.73939 12.65102 33974 ft 517 kts 99°
2026-05-06 06:01 40.73127 12.74522 33979 ft 517 kts 99°
2026-05-06 06:02 40.72309 12.83934 33981 ft 516 kts 99°
2026-05-06 06:02 40.71483 12.93342 33978 ft 516 kts 99°
2026-05-06 06:03 40.70649 13.02745 33984 ft 516 kts 99°
2026-05-06 06:03 40.69814 13.12081 33984 ft 516 kts 99°
2026-05-06 06:04 40.68967 13.21456 33988 ft 515 kts 99°
2026-05-06 06:04 40.68102 13.30951 33992 ft 515 kts 99°
2026-05-06 06:05 40.67240 13.40326 33992 ft 515 kts 99°
2026-05-06 06:05 40.66377 13.49626 33991 ft 515 kts 99°
2026-05-06 06:06 40.65501 13.58983 33993 ft 515 kts 99°
2026-05-06 06:06 40.64617 13.68338 33997 ft 515 kts 99°
2026-05-06 06:07 40.63725 13.77699 33997 ft 515 kts 99°
2026-05-06 06:07 40.62827 13.87045 33998 ft 514 kts 99°
2026-05-06 06:08 40.61919 13.96397 33991 ft 514 kts 99°
2026-05-06 06:08 40.61008 14.05717 33994 ft 513 kts 99°
2026-05-06 06:09 40.60094 14.14983 33996 ft 513 kts 99°
2026-05-06 06:09 40.59168 14.24299 33999 ft 513 kts 99°
2026-05-06 06:10 40.58318 14.33623 34012 ft 514 kts 91°
2026-05-06 06:10 40.58645 14.43055 34011 ft 516 kts 88°
2026-05-06 06:11 40.59055 14.52491 34016 ft 516 kts 88°
2026-05-06 06:11 40.59431 14.61920 34021 ft 515 kts 88°
2026-05-06 06:12 40.59815 14.71281 34026 ft 515 kts 88°
2026-05-06 06:12 40.60182 14.80704 34031 ft 515 kts 88°
2026-05-06 06:13 40.60548 14.90118 34026 ft 515 kts 88°
2026-05-06 06:13 40.60903 14.99545 34034 ft 516 kts 88°
2026-05-06 06:14 40.61253 15.08988 34030 ft 516 kts 88°
2026-05-06 06:14 40.61593 15.18415 34036 ft 516 kts 88°
2026-05-06 06:15 40.61928 15.27870 34029 ft 516 kts 89°
2026-05-06 06:15 40.62254 15.37309 34023 ft 516 kts 89°
2026-05-06 06:16 40.62570 15.46688 34018 ft 515 kts 89°
2026-05-06 06:16 40.62830 15.54571 34023 ft 515 kts 89°
2026-05-06 06:17 40.63132 15.63972 34014 ft 514 kts 89°
2026-05-06 06:17 40.63475 15.74920 34007 ft 514 kts 89°
2026-05-06 06:18 40.63716 15.82796 34004 ft 514 kts 89°
2026-05-06 06:18 40.63996 15.92200 34005 ft 513 kts 89°
2026-05-06 06:19 40.64267 16.01573 34000 ft 512 kts 89°
2026-05-06 06:19 40.64529 16.10876 34009 ft 511 kts 89°
2026-05-06 06:20 40.64785 16.20233 34001 ft 510 kts 89°
2026-05-06 06:20 40.65033 16.29566 34002 ft 510 kts 89°
2026-05-06 06:21 40.65273 16.38900 33993 ft 510 kts 89°
2026-05-06 06:21 40.65506 16.48241 33989 ft 510 kts 89°
2026-05-06 06:22 40.65731 16.57584 34056 ft 510 kts 89°
2026-05-06 06:22 40.65948 16.66921 34009 ft 510 kts 89°
2026-05-06 06:23 40.66157 16.76208 34015 ft 510 kts 89°
2026-05-06 06:23 40.66360 16.85545 34021 ft 511 kts 89°
2026-05-06 06:24 40.66555 16.94903 34011 ft 511 kts 89°
2026-05-06 06:24 40.66744 17.04270 34013 ft 511 kts 89°
2026-05-06 06:25 40.66924 17.13638 34007 ft 512 kts 89°
2026-05-06 06:26 40.67180 17.27663 34015 ft 511 kts 89°
2026-05-06 06:26 40.67335 17.36645 34016 ft 512 kts 89°
2026-05-06 06:27 40.67486 17.45764 34015 ft 512 kts 89°
2026-05-06 06:27 40.67628 17.54810 34015 ft 512 kts 89°
2026-05-06 06:28 40.67765 17.64041 34015 ft 512 kts 89°
2026-05-06 06:28 40.67898 17.73418 34011 ft 512 kts 89°
2026-05-06 06:29 40.68022 17.82741 34013 ft 512 kts 89°
2026-05-06 06:29 40.68139 17.92116 34017 ft 512 kts 89°
2026-05-06 06:30 40.68249 18.01503 34019 ft 512 kts 89°
2026-05-06 06:30 40.68351 18.10888 34019 ft 512 kts 89°
2026-05-06 06:31 40.68445 18.20287 34026 ft 513 kts 89°
2026-05-06 06:31 40.68532 18.29686 34036 ft 513 kts 89°
2026-05-06 06:32 40.68611 18.39096 34040 ft 513 kts 89°
2026-05-06 06:32 40.68684 18.48507 34047 ft 513 kts 89°
2026-05-06 06:33 40.68747 18.57901 34052 ft 513 kts 89°
2026-05-06 06:33 40.68804 18.67328 34050 ft 513 kts 89°
2026-05-06 06:34 40.68852 18.76540 34054 ft 513 kts 89°
2026-05-06 06:34 40.68893 18.85934 34065 ft 513 kts 89°
2026-05-06 06:35 40.68927 18.95350 34061 ft 513 kts 89°
2026-05-06 06:35 40.68953 19.04750 34059 ft 513 kts 89°
2026-05-06 06:36 40.68972 19.14144 34068 ft 513 kts 89°
2026-05-06 06:36 40.68983 19.23555 34065 ft 513 kts 89°
2026-05-06 06:37 40.68986 19.32950 34067 ft 513 kts 89°
2026-05-06 06:37 40.68982 19.41553 34068 ft 513 kts 89°
2026-05-06 06:38 40.68971 19.50640 34070 ft 513 kts 89°
2026-05-06 06:38 40.68954 19.59360 34070 ft 513 kts 89°
2026-05-06 06:39 40.68930 19.68040 34070 ft 513 kts 89°
2026-05-06 06:39 40.68899 19.76936 34074 ft 513 kts 89°
2026-05-06 06:40 40.68864 19.85225 34075 ft 513 kts 89°
2026-05-06 06:40 40.68824 19.93487 34078 ft 513 kts 89°
2026-05-06 06:41 40.68774 20.02378 34082 ft 513 kts 89°
2026-05-06 06:41 40.68715 20.11443 34083 ft 513 kts 89°
2026-05-06 06:42 40.68657 20.19551 34076 ft 513 kts 89°
2026-05-06 06:42 40.68583 20.28788 34082 ft 513 kts 89°
2026-05-06 06:43 40.68505 20.37791 34093 ft 513 kts 89°
2026-05-06 06:43 40.68416 20.47204 34097 ft 513 kts 89°
2026-05-06 06:44 40.68318 20.56615 34092 ft 513 kts 89°
2026-05-06 06:44 40.68214 20.66006 34093 ft 514 kts 89°
2026-05-06 06:45 40.68101 20.75430 34087 ft 514 kts 89°
2026-05-06 06:45 40.67981 20.84855 34092 ft 514 kts 89°
2026-05-06 06:46 40.67854 20.94177 34087 ft 513 kts 89°
2026-05-06 06:46 40.67719 21.03543 34088 ft 514 kts 89°
2026-05-06 06:47 40.67577 21.12911 34080 ft 513 kts 88°
2026-05-06 06:47 40.67434 21.21865 34085 ft 515 kts 89°
2026-05-06 06:48 40.67276 21.31278 34086 ft 516 kts 88°
2026-05-06 06:48 40.67111 21.40661 34080 ft 516 kts 88°
2026-05-06 06:49 40.66939 21.50001 34083 ft 516 kts 88°
2026-05-06 06:49 40.66758 21.59439 34077 ft 515 kts 88°
2026-05-06 06:50 40.66570 21.68821 34074 ft 515 kts 88°
2026-05-06 06:50 40.66375 21.78176 34073 ft 514 kts 88°
2026-05-06 06:51 40.66178 21.87315 34075 ft 514 kts 88°
2026-05-06 06:51 40.65970 21.96590 34072 ft 513 kts 88°
2026-05-06 06:52 40.65751 22.05978 34072 ft 512 kts 88°
2026-05-06 06:52 40.65527 22.15339 34063 ft 512 kts 88°
2026-05-06 06:53 40.65296 22.24625 34064 ft 512 kts 88°
2026-05-06 06:53 40.65059 22.33885 34062 ft 512 kts 88°
2026-05-06 06:54 40.64811 22.43263 34064 ft 513 kts 88°
2026-05-06 06:54 40.64558 22.52544 34059 ft 514 kts 88°
2026-05-06 06:55 40.64293 22.61962 34066 ft 514 kts 88°
2026-05-06 06:55 40.64021 22.71383 34061 ft 515 kts 88°
2026-05-06 06:56 40.63741 22.80815 34059 ft 515 kts 88°
2026-05-06 06:56 40.63453 22.90247 34056 ft 516 kts 87°
2026-05-06 06:57 40.63157 22.99707 34056 ft 517 kts 87°
2026-05-06 06:57 40.62852 23.09176 34057 ft 518 kts 87°
2026-05-06 06:58 40.62540 23.18660 34058 ft 518 kts 87°
2026-05-06 06:58 40.62222 23.28053 34059 ft 518 kts 87°
2026-05-06 06:59 40.61898 23.37412 34062 ft 517 kts 87°
2026-05-06 06:59 40.61563 23.46872 34061 ft 517 kts 87°
2026-05-06 07:00 40.61281 23.54694 34066 ft 517 kts 87°
2026-05-06 07:00 40.60931 23.64149 34053 ft 517 kts 87°
2026-05-06 07:01 40.60575 23.73618 34067 ft 518 kts 87°
2026-05-06 07:01 40.60211 23.83029 34055 ft 518 kts 87°
2026-05-06 07:02 40.59839 23.92514 34057 ft 519 kts 87°
2026-05-06 07:02 40.60368 24.01820 34064 ft 506 kts 73°
2026-05-06 07:03 40.61619 24.10952 34060 ft 507 kts 73°
2026-05-06 07:03 40.62871 24.20081 34062 ft 507 kts 73°
2026-05-06 07:04 40.64111 24.29220 34066 ft 506 kts 73°
2026-05-06 07:04 40.65324 24.38196 34063 ft 506 kts 73°
2026-05-06 07:05 40.66549 24.47328 34062 ft 506 kts 74°
2026-05-06 07:05 40.67767 24.56453 34061 ft 506 kts 74°
2026-05-06 07:06 40.68972 24.65548 34060 ft 505 kts 74°
2026-05-06 07:06 40.70175 24.74675 34065 ft 504 kts 75°
2026-05-06 07:07 40.71369 24.83801 34067 ft 505 kts 75°
2026-05-06 07:07 40.72556 24.92925 34068 ft 505 kts 75°
2026-05-06 07:08 40.73733 25.02040 34069 ft 504 kts 75°
2026-05-06 07:08 40.74903 25.11151 34063 ft 503 kts 75°
2026-05-06 07:09 40.76064 25.20252 34062 ft 503 kts 75°
2026-05-06 07:09 40.77215 25.29335 34064 ft 502 kts 75°
2026-05-06 07:10 40.78359 25.38416 34068 ft 502 kts 75°
2026-05-06 07:10 40.79496 25.47505 34069 ft 502 kts 75°
2026-05-06 07:11 40.80626 25.56605 34066 ft 501 kts 75°
2026-05-06 07:11 40.81746 25.65677 34064 ft 501 kts 75°
2026-05-06 07:12 40.82859 25.74756 34059 ft 501 kts 76°
2026-05-06 07:12 40.83956 25.83767 34059 ft 500 kts 76°
2026-05-06 07:13 40.85054 25.92843 34058 ft 500 kts 76°
2026-05-06 07:13 40.85841 26.01997 34053 ft 502 kts 80°
2026-05-06 07:14 40.86514 26.11171 34060 ft 502 kts 80°
2026-05-06 07:14 40.87142 26.20170 34058 ft 502 kts 80°
2026-05-06 07:15 40.87781 26.29238 34060 ft 501 kts 81°
2026-05-06 07:15 40.88414 26.38410 34061 ft 502 kts 81°
2026-05-06 07:16 40.89029 26.47392 34060 ft 502 kts 81°
2026-05-06 07:16 40.89640 26.56425 34055 ft 501 kts 81°
2026-05-06 07:17 40.90253 26.65602 34059 ft 500 kts 81°
2026-05-06 07:17 40.90848 26.74619 34056 ft 500 kts 81°
2026-05-06 07:18 40.91433 26.83596 34056 ft 500 kts 81°
2026-05-06 07:18 40.92027 26.92811 34053 ft 499 kts 81°
2026-05-06 07:19 40.92608 27.01942 34056 ft 498 kts 81°
2026-05-06 07:19 40.93171 27.10907 34056 ft 498 kts 81°
2026-05-06 07:20 40.93736 27.20019 34053 ft 497 kts 81°
2026-05-06 07:20 40.94290 27.29069 34047 ft 496 kts 81°
2026-05-06 07:21 40.94839 27.38150 34055 ft 494 kts 81°
2026-05-06 07:21 40.95943 27.47048 34047 ft 490 kts 72°
2026-05-06 07:22 40.97582 27.55738 34059 ft 490 kts 72°
2026-05-06 07:22 40.99226 27.64504 34059 ft 491 kts 72°
2026-05-06 07:23 41.00862 27.73270 34054 ft 490 kts 72°
2026-05-06 07:23 41.02491 27.82033 34052 ft 490 kts 72°
2026-05-06 07:24 41.04112 27.90798 34062 ft 490 kts 72°
2026-05-06 07:24 41.05727 27.99565 34063 ft 489 kts 72°
2026-05-06 07:25 41.07331 28.08319 34056 ft 489 kts 72°
2026-05-06 07:25 41.08930 28.17086 34055 ft 489 kts 73°
2026-05-06 07:26 41.10504 28.25748 34060 ft 489 kts 73°
2026-05-06 07:26 41.12091 28.34528 34071 ft 489 kts 73°
2026-05-06 07:27 41.13673 28.43321 34079 ft 490 kts 73°
2026-05-06 07:27 41.15248 28.52118 34080 ft 490 kts 73°
2026-05-06 07:28 41.16817 28.60922 34082 ft 491 kts 74°
2026-05-06 07:28 41.19163 28.74160 34087 ft 491 kts 74°
2026-05-06 07:29 41.20719 28.82999 34080 ft 492 kts 75°
2026-05-06 07:29 41.22269 28.91846 34084 ft 491 kts 75°
2026-05-06 07:30 41.23813 29.00694 34085 ft 492 kts 75°
2026-05-06 07:30 41.25349 29.09546 34081 ft 492 kts 75°
2026-05-06 07:31 41.26879 29.18407 34088 ft 491 kts 75°
2026-05-06 07:31 41.28393 29.27213 34088 ft 491 kts 75°
2026-05-06 07:32 41.29908 29.36073 34086 ft 491 kts 75°
2026-05-06 07:32 41.31417 29.44938 34090 ft 491 kts 75°
2026-05-06 07:33 41.32916 29.53790 34092 ft 490 kts 75°
2026-05-06 07:33 41.34409 29.62655 34090 ft 491 kts 75°
2026-05-06 07:34 41.35895 29.71519 34090 ft 491 kts 75°
2026-05-06 07:34 41.37375 29.80392 34085 ft 490 kts 75°
2026-05-06 07:35 41.38839 29.89214 34086 ft 490 kts 75°
2026-05-06 07:35 41.40303 29.98079 34092 ft 490 kts 75°
2026-05-06 07:36 41.41761 30.06954 34089 ft 489 kts 75°
2026-05-06 07:36 41.43209 30.15812 34088 ft 489 kts 75°
2026-05-06 07:37 41.44649 30.24670 34091 ft 488 kts 75°
2026-05-06 07:37 41.46083 30.33536 34091 ft 488 kts 75°
2026-05-06 07:38 41.47505 30.42377 34090 ft 488 kts 75°
2026-05-06 07:38 41.48913 30.51168 34091 ft 487 kts 75°
2026-05-06 07:39 41.50322 30.60014 34090 ft 487 kts 74°
2026-05-06 07:39 41.51722 30.68856 34094 ft 487 kts 74°
2026-05-06 07:40 41.53114 30.77685 34096 ft 486 kts 74°
2026-05-06 07:40 41.54267 30.85037 34095 ft 485 kts 74°
2026-05-06 07:41 41.55644 30.93863 34097 ft 485 kts 74°
2026-05-06 07:41 41.57015 31.02694 34092 ft 486 kts 74°
2026-05-06 07:42 41.58383 31.11552 34092 ft 486 kts 74°
2026-05-06 07:42 41.59742 31.20408 34091 ft 487 kts 74°
2026-05-06 07:43 41.61098 31.29283 34093 ft 486 kts 74°
2026-05-06 07:43 41.62444 31.38147 34088 ft 486 kts 74°
2026-05-06 07:44 41.63774 31.46952 34099 ft 486 kts 74°
2026-05-06 07:44 41.65106 31.55815 34096 ft 486 kts 74°
2026-05-06 07:45 41.66439 31.64738 34094 ft 485 kts 74°
2026-05-06 07:45 41.67744 31.73521 34094 ft 485 kts 74°
2026-05-06 07:46 41.69052 31.82370 34100 ft 484 kts 74°
2026-05-06 07:46 41.70350 31.91204 34102 ft 483 kts 75°
2026-05-06 07:47 41.71632 31.99978 34107 ft 483 kts 75°
2026-05-06 07:47 41.72915 32.08814 34104 ft 483 kts 75°
2026-05-06 07:48 41.74191 32.17641 34101 ft 482 kts 75°
2026-05-06 07:48 41.75457 32.26461 34106 ft 482 kts 75°
2026-05-06 07:49 41.76715 32.35270 34098 ft 481 kts 75°
2026-05-06 07:49 41.77956 32.44008 34098 ft 480 kts 75°
2026-05-06 07:50 41.79199 32.52807 34095 ft 480 kts 76°
2026-05-06 07:50 41.80432 32.61595 34097 ft 479 kts 76°
2026-05-06 07:51 41.81659 32.70384 34093 ft 479 kts 76°
2026-05-06 07:51 41.82870 32.79113 34090 ft 480 kts 76°
2026-05-06 07:52 41.84083 32.87912 34083 ft 480 kts 76°
2026-05-06 07:52 41.85291 32.96717 34075 ft 480 kts 76°
2026-05-06 07:53 41.86491 33.05525 34076 ft 479 kts 76°
2026-05-06 07:53 41.87678 33.14280 34084 ft 480 kts 76°
2026-05-06 07:54 41.88867 33.23113 34084 ft 480 kts 76°
2026-05-06 07:54 41.90048 33.31934 34088 ft 480 kts 77°
2026-05-06 07:55 41.91221 33.40751 34085 ft 479 kts 77°
2026-05-06 07:55 41.92371 33.49444 34083 ft 480 kts 77°
2026-05-06 07:56 41.93530 33.58263 34088 ft 481 kts 77°
2026-05-06 07:56 41.94700 33.67222 34088 ft 480 kts 77°
2026-05-06 07:57 41.95455 33.76132 34089 ft 481 kts 83°
2026-05-06 07:57 41.95980 33.85096 34092 ft 481 kts 83°
2026-05-06 07:58 41.96483 33.94070 34086 ft 481 kts 83°
2026-05-06 07:58 41.96986 34.03030 34093 ft 480 kts 83°
2026-05-06 07:59 41.97477 34.11980 34101 ft 480 kts 84°
2026-05-06 07:59 41.97961 34.20881 34092 ft 480 kts 84°
2026-05-06 08:00 41.98440 34.29835 34086 ft 480 kts 84°
2026-05-06 08:00 41.98911 34.38790 34088 ft 480 kts 84°
2026-05-06 08:01 41.99377 34.47750 34101 ft 480 kts 84°
2026-05-06 08:01 41.99835 34.56707 34108 ft 480 kts 84°
2026-05-06 08:02 42.00285 34.65663 34107 ft 480 kts 84°
2026-05-06 08:02 42.00731 34.74645 34105 ft 481 kts 85°
2026-05-06 08:03 42.01165 34.83559 34107 ft 481 kts 85°
2026-05-06 08:03 42.01597 34.92557 34097 ft 482 kts 85°
2026-05-06 08:04 42.02022 35.01552 34097 ft 482 kts 85°
2026-05-06 08:04 42.02263 35.10512 34103 ft 481 kts 90°
2026-05-06 08:05 42.02106 35.19548 34101 ft 483 kts 90°
2026-05-06 08:05 42.01955 35.28568 34106 ft 482 kts 90°
2026-05-06 08:06 42.01791 35.37531 34107 ft 482 kts 90°
2026-05-06 08:06 42.01623 35.46560 34108 ft 483 kts 90°
2026-05-06 08:07 42.01446 35.55582 34112 ft 483 kts 90°
2026-05-06 08:07 42.01261 35.64637 34111 ft 484 kts 91°
2026-05-06 08:08 42.01070 35.73690 34108 ft 484 kts 91°
2026-05-06 08:08 42.00872 35.82733 34112 ft 484 kts 91°
2026-05-06 08:09 42.00667 35.91736 34114 ft 485 kts 91°
2026-05-06 08:09 42.00454 36.00802 34111 ft 485 kts 91°
2026-05-06 08:10 42.00234 36.09855 34109 ft 484 kts 91°
2026-05-06 08:10 42.00007 36.18915 34108 ft 484 kts 91°
2026-05-06 08:11 41.99772 36.27977 34109 ft 485 kts 92°
2026-05-06 08:11 41.99531 36.37038 34111 ft 485 kts 92°
2026-05-06 08:12 41.99283 36.46049 34107 ft 485 kts 92°
2026-05-06 08:12 41.99028 36.55100 34111 ft 485 kts 92°
2026-05-06 08:13 41.98764 36.64164 34110 ft 485 kts 92°
2026-05-06 08:13 41.98494 36.73226 34114 ft 485 kts 92°
2026-05-06 08:14 41.98217 36.82293 34112 ft 485 kts 92°
2026-05-06 08:14 41.97933 36.91349 34110 ft 484 kts 92°
2026-05-06 08:15 41.97641 37.00417 34108 ft 486 kts 92°
2026-05-06 08:15 41.97342 37.09485 34111 ft 486 kts 92°
2026-05-06 08:16 41.97036 37.18553 34108 ft 485 kts 93°
2026-05-06 08:16 41.96722 37.27621 34110 ft 486 kts 93°
2026-05-06 08:17 41.96402 37.36693 34107 ft 486 kts 93°
2026-05-06 08:17 41.96074 37.45765 34109 ft 486 kts 93°
2026-05-06 08:18 41.95741 37.54778 34106 ft 486 kts 93°
2026-05-06 08:18 41.95399 37.63853 34110 ft 486 kts 93°
2026-05-06 08:19 41.95049 37.72943 34108 ft 487 kts 93°
2026-05-06 08:19 41.94692 37.82026 34104 ft 487 kts 94°
2026-05-06 08:20 41.94329 37.91103 34101 ft 487 kts 94°
2026-05-06 08:20 41.93957 38.00190 34104 ft 487 kts 94°
2026-05-06 08:21 41.93579 38.09266 34103 ft 487 kts 94°
2026-05-06 08:21 41.93196 38.18289 34100 ft 487 kts 94°
2026-05-06 08:22 41.92803 38.27372 34100 ft 486 kts 94°
2026-05-06 08:22 41.92403 38.36442 34094 ft 487 kts 94°
2026-05-06 08:23 41.91996 38.45522 34097 ft 488 kts 94°
2026-05-06 08:23 41.91581 38.54631 34098 ft 489 kts 94°
2026-05-06 08:24 41.91157 38.63745 34096 ft 489 kts 94°
2026-05-06 08:24 41.90726 38.72878 34093 ft 489 kts 94°
2026-05-06 08:25 41.90292 38.81924 34093 ft 489 kts 94°
2026-05-06 08:25 41.89847 38.91027 34090 ft 488 kts 94°
2026-05-06 08:26 41.89396 39.00127 34088 ft 488 kts 95°
2026-05-06 08:26 41.89014 39.07706 34088 ft 490 kts 95°
2026-05-06 08:27 41.88548 39.16830 34094 ft 491 kts 95°
2026-05-06 08:27 41.88073 39.25986 34096 ft 492 kts 95°
2026-05-06 08:28 41.87592 39.35132 34092 ft 490 kts 95°
2026-05-06 08:28 41.87104 39.44256 34088 ft 489 kts 95°
2026-05-06 08:29 41.86610 39.53362 34084 ft 489 kts 95°
2026-05-06 08:29 41.86108 39.62466 34084 ft 490 kts 95°
2026-05-06 08:30 41.85600 39.71550 34086 ft 491 kts 95°
2026-05-06 08:30 41.85082 39.80694 34086 ft 492 kts 95°
2026-05-06 08:31 41.84556 39.89844 34085 ft 492 kts 95°
2026-05-06 08:31 41.84022 39.99010 34086 ft 493 kts 95°
2026-05-06 08:32 41.83484 40.08121 34090 ft 493 kts 95°
2026-05-06 08:32 41.82936 40.17275 34085 ft 492 kts 95°
2026-05-06 08:33 41.82381 40.26424 34083 ft 493 kts 95°
2026-05-06 08:33 41.81817 40.35592 34086 ft 493 kts 96°
2026-05-06 08:34 41.80958 40.49334 34086 ft 493 kts 96°
2026-05-06 08:35 41.80375 40.58505 34087 ft 493 kts 96°
2026-05-06 08:35 41.79839 40.67663 34102 ft 493 kts 93°
2026-05-06 08:36 41.79373 40.76785 34098 ft 494 kts 95°
2026-05-06 08:36 41.78924 40.86040 34101 ft 495 kts 94°
2026-05-06 08:37 41.78466 40.95244 34101 ft 495 kts 95°
2026-05-06 08:37 41.77994 41.04465 34098 ft 496 kts 95°
2026-05-06 08:38 41.77522 41.13694 34107 ft 496 kts 95°
2026-05-06 08:38 41.77040 41.22821 34097 ft 496 kts 95°
2026-05-06 08:39 41.76553 41.32033 34095 ft 496 kts 95°
2026-05-06 08:39 41.76053 41.41251 34103 ft 496 kts 95°
2026-05-06 08:40 41.75550 41.50457 34104 ft 496 kts 95°
2026-05-06 08:40 41.75037 41.59663 34094 ft 496 kts 95°
2026-05-06 08:41 41.74517 41.68877 34097 ft 496 kts 95°
2026-05-06 08:41 41.73991 41.78076 34096 ft 497 kts 95°
2026-05-06 08:42 41.73455 41.87300 34092 ft 497 kts 96°
2026-05-06 08:42 41.72913 41.96514 34092 ft 497 kts 96°
2026-05-06 08:43 41.72366 42.05691 34082 ft 498 kts 96°
2026-05-06 08:43 41.71557 42.14705 34088 ft 498 kts 99°
2026-05-06 08:44 41.70580 42.23892 34085 ft 498 kts 99°
2026-05-06 08:44 41.69564 42.33066 34078 ft 499 kts 99°
2026-05-06 08:45 41.68556 42.42251 34072 ft 499 kts 99°
2026-05-06 08:45 41.67533 42.51439 34069 ft 500 kts 100°
2026-05-06 08:46 41.66511 42.60565 34054 ft 500 kts 100°
2026-05-06 08:46 41.65470 42.69795 34046 ft 501 kts 100°
2026-05-06 08:47 41.64434 42.78908 34039 ft 501 kts 100°
2026-05-06 08:47 41.63379 42.88124 34032 ft 501 kts 100°
2026-05-06 08:48 41.62323 42.97274 34030 ft 501 kts 100°
2026-05-06 08:48 41.61252 43.06493 34028 ft 501 kts 100°
2026-05-06 08:49 41.60175 43.15703 34033 ft 502 kts 101°
2026-05-06 08:49 41.59087 43.24937 34032 ft 503 kts 101°
2026-05-06 08:50 41.57992 43.34162 34032 ft 503 kts 101°
2026-05-06 08:50 41.56897 43.43321 34033 ft 503 kts 101°
2026-05-06 08:51 41.55787 43.52543 34031 ft 503 kts 101°
2026-05-06 08:51 41.54661 43.61834 34027 ft 503 kts 101°
2026-05-06 08:52 41.53542 43.71002 34024 ft 504 kts 101°
2026-05-06 08:52 41.52593 43.78731 34020 ft 504 kts 101°
2026-05-06 08:53 41.51450 43.87977 34020 ft 505 kts 101°
2026-05-06 08:53 41.50318 43.97082 34011 ft 505 kts 101°
2026-05-06 08:54 41.49167 44.06262 34001 ft 506 kts 101°
2026-05-06 08:54 41.48027 44.15304 33999 ft 506 kts 101°
2026-05-06 08:55 41.46865 44.24461 34001 ft 506 kts 102°
2026-05-06 08:55 41.45703 44.33559 33995 ft 507 kts 102°
2026-05-06 08:56 41.44523 44.42730 34003 ft 508 kts 102°
2026-05-06 08:56 41.43330 44.51953 33999 ft 508 kts 102°
2026-05-06 08:57 41.42124 44.61203 34000 ft 508 kts 102°
2026-05-06 08:57 41.40943 44.70210 34006 ft 509 kts 102°
2026-05-06 08:58 41.39716 44.79505 33994 ft 509 kts 102°
2026-05-06 08:58 41.38481 44.88804 34000 ft 510 kts 103°
2026-05-06 08:59 41.37255 44.97981 33996 ft 510 kts 103°
2026-05-06 08:59 41.35977 45.07389 34006 ft 509 kts 106°
2026-05-06 09:00 41.33818 45.16325 34007 ft 508 kts 112°
2026-05-06 09:00 41.31538 45.25220 34017 ft 508 kts 112°
2026-05-06 09:01 41.29956 45.31366 34011 ft 509 kts 112°
2026-05-06 09:01 41.27660 45.40266 34033 ft 509 kts 112°
2026-05-06 09:02 41.25745 45.47660 34037 ft 509 kts 112°
2026-05-06 09:02 41.23459 45.56458 34037 ft 509 kts 112°
2026-05-06 09:03 41.21138 45.65360 34035 ft 510 kts 113°
2026-05-06 09:03 41.18817 45.74193 34033 ft 510 kts 113°
2026-05-06 09:04 41.16475 45.83073 34033 ft 509 kts 113°
2026-05-06 09:04 41.14133 45.91925 34039 ft 508 kts 114°
2026-05-06 09:05 41.11814 46.00653 34037 ft 509 kts 114°
2026-05-06 09:05 41.09454 46.09512 34038 ft 510 kts 114°
2026-05-06 09:06 41.07096 46.18324 34048 ft 510 kts 114°
2026-05-06 09:06 41.04715 46.27194 34032 ft 511 kts 114°
2026-05-06 09:07 41.02336 46.36078 34023 ft 512 kts 114°
2026-05-06 09:07 40.99964 46.44981 34023 ft 512 kts 115°
2026-05-06 09:08 40.97975 46.52373 34024 ft 512 kts 115°
2026-05-06 09:08 40.95619 46.61142 34023 ft 513 kts 115°
2026-05-06 09:09 40.93218 46.70023 34021 ft 513 kts 115°
2026-05-06 09:09 40.91112 46.79072 34057 ft 521 kts 103°
2026-05-06 09:09 40.90824 46.83881 34050 ft 529 kts 92°
2026-05-06 09:10 40.91182 46.88742 34045 ft 535 kts 81°
2026-05-06 09:10 40.92903 46.98292 34029 ft 537 kts 79°
2026-05-06 09:11 40.94689 47.07856 34035 ft 535 kts 79°
2026-05-06 09:11 40.96440 47.17434 34034 ft 535 kts 79°
2026-05-06 09:12 40.98197 47.26999 34028 ft 534 kts 79°
2026-05-06 09:12 40.99934 47.36556 34021 ft 534 kts 80°
2026-05-06 09:13 41.01659 47.46068 34016 ft 534 kts 80°
2026-05-06 09:13 41.03378 47.55608 34000 ft 534 kts 80°
2026-05-06 09:14 41.05091 47.65161 33996 ft 533 kts 81°
2026-05-06 09:14 41.06795 47.74710 34001 ft 533 kts 81°
2026-05-06 09:15 41.08450 47.84035 33979 ft 533 kts 81°
2026-05-06 09:15 41.10172 47.93785 33985 ft 533 kts 81°
2026-05-06 09:16 41.12367 48.03205 33973 ft 538 kts 73°
2026-05-06 09:16 41.14875 48.12217 33976 ft 536 kts 73°
2026-05-06 09:17 41.17465 48.21542 33976 ft 537 kts 73°
2026-05-06 09:17 41.20041 48.30855 33982 ft 535 kts 73°
2026-05-06 09:18 41.22594 48.40122 33979 ft 533 kts 73°
2026-05-06 09:18 41.25136 48.49380 33982 ft 532 kts 73°
2026-05-06 09:19 41.27657 48.58598 33981 ft 532 kts 73°
2026-05-06 09:19 41.30167 48.67807 33980 ft 532 kts 73°
2026-05-06 09:20 41.32658 48.76980 33984 ft 531 kts 74°
2026-05-06 09:20 41.35176 48.86290 33984 ft 531 kts 74°
2026-05-06 09:21 41.37672 48.95555 33980 ft 532 kts 74°
2026-05-06 09:21 41.40161 49.04830 33981 ft 532 kts 74°
2026-05-06 09:22 41.42647 49.14129 33978 ft 532 kts 74°
2026-05-06 09:22 41.45121 49.23418 33979 ft 532 kts 74°
2026-05-06 09:23 41.47591 49.32729 33976 ft 533 kts 74°
2026-05-06 09:23 41.50037 49.41981 33981 ft 533 kts 75°
2026-05-06 09:24 41.52499 49.51334 33978 ft 532 kts 75°
2026-05-06 09:24 41.54948 49.60670 33981 ft 533 kts 75°
2026-05-06 09:25 41.57373 49.69953 33974 ft 534 kts 75°
2026-05-06 09:25 41.59829 49.79387 33974 ft 535 kts 75°
2026-05-06 09:26 41.62252 49.88733 33970 ft 535 kts 75°
2026-05-06 09:26 41.64668 49.98087 33970 ft 536 kts 75°
2026-05-06 09:27 41.67090 50.07503 33972 ft 535 kts 75°
2026-05-06 09:27 41.69507 50.16934 33973 ft 535 kts 75°
2026-05-06 09:28 41.71914 50.26366 33970 ft 536 kts 75°
2026-05-06 09:28 41.74317 50.35819 33970 ft 536 kts 75°
2026-05-06 09:29 41.76714 50.45285 33966 ft 537 kts 75°
2026-05-06 09:29 41.79108 50.54777 33964 ft 537 kts 75°
2026-05-06 09:30 41.81493 50.64270 33958 ft 538 kts 75°
2026-05-06 09:30 41.83872 50.73781 33960 ft 538 kts 75°
2026-05-06 09:31 41.86230 50.83242 33958 ft 538 kts 75°
2026-05-06 09:31 41.88594 50.92769 33957 ft 538 kts 75°
2026-05-06 09:32 41.90949 51.02295 33959 ft 538 kts 75°
2026-05-06 09:32 41.93295 51.11827 33954 ft 537 kts 75°
2026-05-06 09:33 41.95631 51.21358 33955 ft 537 kts 75°
2026-05-06 09:33 41.97962 51.30903 33953 ft 537 kts 75°
2026-05-06 09:34 42.00281 51.40442 33949 ft 537 kts 75°
2026-05-06 09:34 42.03340 51.49611 33985 ft 543 kts 58°
2026-05-06 09:35 42.07477 51.58130 33970 ft 544 kts 58°
2026-05-06 09:35 42.11617 51.66677 33961 ft 544 kts 59°
2026-05-06 09:36 42.15735 51.75216 33959 ft 543 kts 58°
2026-05-06 09:36 42.19850 51.83760 33959 ft 542 kts 59°
2026-05-06 09:37 42.23942 51.92294 33952 ft 542 kts 59°
2026-05-06 09:37 42.28060 52.00895 33944 ft 541 kts 59°
2026-05-06 09:38 42.32134 52.09437 33943 ft 541 kts 59°
2026-05-06 09:38 42.36208 52.17997 33939 ft 540 kts 59°
2026-05-06 09:39 42.40259 52.26538 33932 ft 539 kts 59°
2026-05-06 09:39 42.44273 52.35022 33934 ft 538 kts 59°
2026-05-06 09:40 42.48304 52.43568 33933 ft 538 kts 59°
2026-05-06 09:40 42.54333 52.56395 33930 ft 538 kts 59°
2026-05-06 09:41 42.58348 52.64966 33926 ft 537 kts 59°
2026-05-06 09:41 42.62348 52.73532 33924 ft 537 kts 59°
2026-05-06 09:42 42.66342 52.82109 33923 ft 536 kts 59°
2026-05-06 09:42 42.70320 52.90675 33914 ft 536 kts 59°
2026-05-06 09:43 42.74291 52.99253 33912 ft 535 kts 59°
2026-05-06 09:43 42.78223 53.07770 33903 ft 534 kts 59°
2026-05-06 09:44 42.82166 53.16336 33905 ft 534 kts 59°
2026-05-06 09:44 42.86106 53.24921 33893 ft 533 kts 60°
2026-05-06 09:45 42.90034 53.33503 33895 ft 532 kts 60°
2026-05-06 09:45 42.93944 53.42073 33897 ft 531 kts 60°
2026-05-06 09:46 42.97844 53.50642 33898 ft 530 kts 60°
2026-05-06 09:46 43.01080 53.59436 33921 ft 523 kts 78°
2026-05-06 09:47 43.01821 53.64208 33929 ft 517 kts 89°
2026-05-06 09:47 43.02179 53.69089 33914 ft 516 kts 89°
2026-05-06 09:47 43.02827 53.78775 33909 ft 515 kts 89°
2026-05-06 09:48 43.03488 53.88542 33906 ft 515 kts 89°
2026-05-06 09:48 43.04135 53.98295 33909 ft 515 kts 89°
2026-05-06 09:49 43.04772 54.08039 33904 ft 514 kts 89°
2026-05-06 09:49 43.05402 54.17767 33899 ft 514 kts 89°
2026-05-06 09:50 43.06023 54.27509 33891 ft 513 kts 89°
2026-05-06 09:50 43.06533 54.35584 33894 ft 512 kts 90°
2026-05-06 09:51 43.07134 54.45275 33892 ft 511 kts 90°
2026-05-06 09:51 43.07728 54.54935 33892 ft 511 kts 90°
2026-05-06 09:52 43.08307 54.64505 33894 ft 511 kts 90°
2026-05-06 09:52 43.08884 54.74181 33894 ft 510 kts 90°
2026-05-06 09:53 43.09452 54.83846 33893 ft 510 kts 90°
2026-05-06 09:53 43.10007 54.93420 33892 ft 509 kts 90°
2026-05-06 09:54 43.10559 55.03070 33893 ft 509 kts 90°
2026-05-06 09:54 43.11102 55.12733 33890 ft 508 kts 90°
2026-05-06 09:55 43.11636 55.22374 33890 ft 507 kts 90°
2026-05-06 09:55 43.12126 55.31341 33883 ft 506 kts 91°
2026-05-06 09:56 43.12635 55.40800 33888 ft 506 kts 91°
2026-05-06 09:56 43.13137 55.50285 33886 ft 505 kts 91°
2026-05-06 09:57 43.13640 55.59927 33891 ft 503 kts 91°
2026-05-06 09:57 43.14120 55.69292 33884 ft 502 kts 91°
2026-05-06 09:58 43.14600 55.78809 33888 ft 501 kts 91°
2026-05-06 09:58 43.15067 55.88242 33884 ft 501 kts 91°
2026-05-06 09:59 43.15511 55.97297 33885 ft 502 kts 90°
2026-05-06 09:59 43.16083 56.02049 33910 ft 509 kts 79°
2026-05-06 09:59 43.17051 56.06732 33896 ft 511 kts 78°
2026-05-06 10:00 43.18993 56.15808 33896 ft 511 kts 78°
2026-05-06 10:00 43.20931 56.25088 33885 ft 511 kts 78°
2026-05-06 10:01 43.22729 56.33644 33880 ft 509 kts 78°
2026-05-06 10:01 43.24666 56.42951 33881 ft 511 kts 78°
2026-05-06 10:02 43.26554 56.52043 33872 ft 512 kts 78°
2026-05-06 10:02 43.28490 56.61412 33864 ft 512 kts 78°
2026-05-06 10:03 43.30397 56.70687 33871 ft 513 kts 78°
2026-05-06 10:03 43.32299 56.79977 33874 ft 513 kts 79°
2026-05-06 10:04 43.34208 56.89349 33869 ft 513 kts 79°
2026-05-06 10:04 43.36141 56.98877 33864 ft 513 kts 79°
2026-05-06 10:05 43.38050 57.08336 33873 ft 514 kts 79°
2026-05-06 10:05 43.39952 57.17802 33865 ft 514 kts 79°
2026-05-06 10:06 43.41852 57.27303 33869 ft 514 kts 79°
2026-05-06 10:06 43.43742 57.36802 33864 ft 515 kts 79°
2026-05-06 10:07 43.45557 57.45964 33867 ft 515 kts 79°
2026-05-06 10:07 43.47444 57.55536 33865 ft 516 kts 79°
2026-05-06 10:08 43.49317 57.65084 33863 ft 517 kts 79°
2026-05-06 10:08 43.51156 57.74502 33876 ft 517 kts 79°
2026-05-06 10:09 43.53016 57.84077 33869 ft 517 kts 79°
2026-05-06 10:09 43.54882 57.93727 33866 ft 517 kts 79°
2026-05-06 10:10 43.56689 58.03123 33867 ft 517 kts 79°
2026-05-06 10:10 43.58527 58.12723 33867 ft 517 kts 79°
2026-05-06 10:11 43.60346 58.22270 33868 ft 517 kts 79°
2026-05-06 10:11 43.62162 58.31850 33866 ft 516 kts 79°
2026-05-06 10:12 43.63955 58.41413 33870 ft 515 kts 79°
2026-05-06 10:12 43.65672 58.50832 33875 ft 515 kts 79°
2026-05-06 10:13 43.67449 58.60495 33868 ft 515 kts 79°
2026-05-06 10:13 43.69192 58.70097 33871 ft 515 kts 79°
2026-05-06 10:14 43.70924 58.79645 33863 ft 516 kts 79°
2026-05-06 10:14 43.72656 58.89266 33867 ft 516 kts 79°
2026-05-06 10:15 43.74383 58.98899 33873 ft 516 kts 79°
2026-05-06 10:15 43.76115 59.08543 33871 ft 517 kts 78°
2026-05-06 10:16 43.77895 59.18155 33868 ft 518 kts 78°
2026-05-06 10:16 43.79643 59.27838 33868 ft 519 kts 78°
2026-05-06 10:17 43.81382 59.37414 33866 ft 520 kts 78°
2026-05-06 10:17 43.83131 59.47153 33866 ft 520 kts 78°
2026-05-06 10:18 43.84860 59.56801 33865 ft 521 kts 78°
2026-05-06 10:18 43.86598 59.66566 33870 ft 522 kts 78°
2026-05-06 10:19 43.88315 59.76345 33859 ft 522 kts 78°
2026-05-06 10:19 43.89941 59.85873 33856 ft 523 kts 78°
2026-05-06 10:20 43.91657 59.95826 33848 ft 523 kts 78°
2026-05-06 10:20 43.93325 60.05649 33857 ft 523 kts 78°
2026-05-06 10:21 43.94997 60.15492 33852 ft 523 kts 78°
2026-05-06 10:21 43.96632 60.25202 33847 ft 523 kts 78°
2026-05-06 10:22 43.98230 60.34732 33846 ft 522 kts 78°
2026-05-06 10:22 43.99873 60.44595 33846 ft 522 kts 78°
2026-05-06 10:23 44.01472 60.54247 33844 ft 522 kts 78°
2026-05-06 10:23 44.03093 60.64081 33845 ft 523 kts 78°
2026-05-06 10:24 44.04706 60.73924 33842 ft 523 kts 78°
2026-05-06 10:24 44.06314 60.83796 33843 ft 522 kts 78°
2026-05-06 10:25 44.07883 60.93486 33843 ft 523 kts 78°
2026-05-06 10:25 44.09451 61.03229 33840 ft 524 kts 78°
2026-05-06 10:26 44.11031 61.13096 33839 ft 524 kts 78°
2026-05-06 10:26 44.12593 61.22911 33835 ft 525 kts 78°
2026-05-06 10:27 44.14107 61.32858 33853 ft 523 kts 85°
2026-05-06 10:27 44.14599 61.42903 33855 ft 523 kts 88°
2026-05-06 10:28 44.15032 61.52953 33858 ft 523 kts 88°
2026-05-06 10:28 44.15468 61.62975 33860 ft 522 kts 88°
2026-05-06 10:29 44.15894 61.73109 33856 ft 522 kts 88°
2026-05-06 10:29 44.16316 61.83132 33857 ft 522 kts 88°
2026-05-06 10:30 44.16720 61.93116 33854 ft 521 kts 88°
2026-05-06 10:30 44.17125 62.03200 33857 ft 521 kts 88°
2026-05-06 10:31 44.17517 62.13269 33858 ft 520 kts 88°
2026-05-06 10:31 44.17898 62.23266 33855 ft 519 kts 88°
2026-05-06 10:32 44.18271 62.33291 33856 ft 518 kts 88°
2026-05-06 10:32 44.18616 62.43323 33855 ft 518 kts 88°
2026-05-06 10:33 44.18902 62.51658 33856 ft 518 kts 88°
2026-05-06 10:33 44.19230 62.61487 33861 ft 517 kts 89°
2026-05-06 10:34 44.19553 62.71490 33866 ft 517 kts 89°
2026-05-06 10:34 44.19870 62.81512 33866 ft 517 kts 89°
2026-05-06 10:35 44.20176 62.91525 33873 ft 516 kts 89°
2026-05-06 10:35 44.20476 63.01523 33769 ft 515 kts 91°
2026-05-06 10:36 44.20624 63.06446 33877 ft 503 kts 91°
2026-05-06 10:36 44.20756 63.11227 33872 ft 502 kts 92°
2026-05-06 10:36 44.20935 63.20972 33884 ft 502 kts 93°
2026-05-06 10:37 44.21117 63.30710 33876 ft 502 kts 92°
2026-05-06 10:37 44.21208 63.40352 33880 ft 501 kts 93°
2026-05-06 10:38 44.21329 63.50038 33878 ft 500 kts 93°
2026-05-06 10:38 44.21427 63.59727 33890 ft 500 kts 93°
2026-05-06 10:39 44.21521 63.69444 33886 ft 501 kts 92°
2026-05-06 10:39 44.21607 63.79153 33892 ft 501 kts 92°
2026-05-06 10:40 44.21684 63.88864 33894 ft 501 kts 92°
2026-05-06 10:40 44.21753 63.98602 33889 ft 502 kts 92°
2026-05-06 10:41 44.21813 64.08290 33897 ft 502 kts 92°
2026-05-06 10:41 44.21898 64.18081 33901 ft 503 kts 88°
2026-05-06 10:42 44.22346 64.27408 33904 ft 504 kts 89°
2026-05-06 10:42 44.22778 64.37176 33906 ft 505 kts 88°
2026-05-06 10:43 44.23227 64.46953 33907 ft 506 kts 88°
2026-05-06 10:44 44.23861 64.61533 33907 ft 507 kts 88°
2026-05-06 10:44 44.24272 64.71171 33904 ft 509 kts 88°
2026-05-06 10:45 44.24657 64.80384 33909 ft 510 kts 88°
2026-05-06 10:45 44.25044 64.90265 33912 ft 511 kts 88°
2026-05-06 10:46 44.25406 65.00162 33911 ft 512 kts 88°
2026-05-06 10:46 44.25765 65.09856 33913 ft 513 kts 88°
2026-05-06 10:47 44.26107 65.19570 33909 ft 514 kts 88°
2026-05-06 10:47 44.26458 65.29590 33914 ft 515 kts 88°
2026-05-06 10:48 44.26792 65.39506 33909 ft 515 kts 88°
2026-05-06 10:48 44.27124 65.49538 33914 ft 516 kts 88°
2026-05-06 10:49 44.27443 65.59475 33914 ft 517 kts 88°
2026-05-06 10:49 44.27756 65.69505 33915 ft 517 kts 88°
2026-05-06 10:50 44.28051 65.79203 33955 ft 523 kts 88°
2026-05-06 10:50 44.28349 65.89291 34275 ft 530 kts 88°
2026-05-06 10:50 44.28497 65.94413 34638 ft 528 kts 88°
2026-05-06 10:51 44.28638 65.99400 35007 ft 526 kts 88°
2026-05-06 10:51 44.28784 66.04628 35374 ft 525 kts 88°
2026-05-06 10:51 44.28924 66.09704 35730 ft 523 kts 88°
2026-05-06 10:51 44.29046 66.14203 36056 ft 521 kts 88°
2026-05-06 10:52 44.29183 66.19336 36422 ft 519 kts 88°
2026-05-06 10:52 44.29315 66.24362 36789 ft 517 kts 88°
2026-05-06 10:52 44.29444 66.29381 36951 ft 520 kts 88°
2026-05-06 10:53 44.29698 66.39457 36952 ft 516 kts 88°
2026-05-06 10:53 44.29787 66.49391 36967 ft 511 kts 89°
2026-05-06 10:54 44.29947 66.59320 36961 ft 511 kts 90°
2026-05-06 10:54 44.29971 66.69137 36965 ft 510 kts 89°
2026-05-06 10:55 44.30061 66.79135 36968 ft 510 kts 89°
2026-05-06 10:55 44.30101 66.88914 36972 ft 510 kts 89°
2026-05-06 10:56 44.30153 66.98811 36982 ft 509 kts 89°
2026-05-06 10:56 44.30188 67.08696 36981 ft 509 kts 89°
2026-05-06 10:57 44.30217 67.18578 36984 ft 509 kts 89°
2026-05-06 10:57 44.30237 67.28430 36990 ft 510 kts 89°
2026-05-06 10:58 44.30249 67.38352 36998 ft 510 kts 89°
2026-05-06 10:58 44.30252 67.48167 37004 ft 509 kts 89°
2026-05-06 10:59 44.30527 67.57739 37007 ft 508 kts 84°
2026-05-06 10:59 44.31069 67.67581 37022 ft 509 kts 85°
2026-05-06 11:00 44.31590 67.77431 37021 ft 508 kts 84°
2026-05-06 11:00 44.32110 67.87242 37022 ft 508 kts 85°
2026-05-06 11:01 44.32616 67.97092 37027 ft 509 kts 84°
2026-05-06 11:01 44.33118 68.06935 37023 ft 508 kts 84°
2026-05-06 11:02 44.33605 68.16690 37015 ft 507 kts 84°
2026-05-06 11:02 44.34089 68.26538 37022 ft 507 kts 84°
2026-05-06 11:03 44.34562 68.36354 37017 ft 508 kts 84°
2026-05-06 11:03 44.35027 68.46153 37019 ft 508 kts 84°
2026-05-06 11:04 44.35487 68.56055 37014 ft 508 kts 84°
2026-05-06 11:04 44.35921 68.65560 37011 ft 507 kts 84°
2026-05-06 11:05 44.36369 68.75549 37003 ft 507 kts 84°
2026-05-06 11:05 44.36801 68.85398 37002 ft 507 kts 84°
2026-05-06 11:06 44.36882 68.95189 37009 ft 508 kts 92°
2026-05-06 11:06 44.36391 69.05109 37009 ft 508 kts 92°
2026-05-06 11:07 44.35922 69.14875 37002 ft 508 kts 92°
2026-05-06 11:07 44.35427 69.24742 37007 ft 509 kts 92°
2026-05-06 11:08 44.34942 69.34365 37002 ft 508 kts 91°
2026-05-06 11:08 44.34436 69.44190 37012 ft 508 kts 92°
2026-05-06 11:09 44.33919 69.54070 36995 ft 508 kts 91°
2026-05-06 11:09 44.33400 69.63836 37007 ft 507 kts 91°
2026-05-06 11:10 44.32864 69.73748 37000 ft 508 kts 91°
2026-05-06 11:10 44.32327 69.83520 37008 ft 508 kts 91°
2026-05-06 11:11 44.31777 69.93379 37006 ft 509 kts 91°
2026-05-06 11:11 44.31217 70.03257 36997 ft 509 kts 91°
2026-05-06 11:12 44.30651 70.13100 36991 ft 509 kts 91°
2026-05-06 11:12 44.30075 70.22962 36999 ft 509 kts 91°
2026-05-06 11:13 44.29491 70.32814 36998 ft 509 kts 91°
2026-05-06 11:13 44.28895 70.42616 36999 ft 509 kts 91°
2026-05-06 11:14 44.28287 70.52466 36997 ft 509 kts 91°
2026-05-06 11:14 44.27679 70.62202 36997 ft 510 kts 91°
2026-05-06 11:15 44.27055 70.72023 36992 ft 510 kts 91°
2026-05-06 11:15 44.26423 70.81864 36995 ft 510 kts 91°
2026-05-06 11:16 44.25780 70.91732 36994 ft 511 kts 91°
2026-05-06 11:16 44.25237 70.99951 36992 ft 511 kts 91°
2026-05-06 11:17 44.24471 71.11420 36990 ft 511 kts 91°
2026-05-06 11:17 44.23910 71.19698 36990 ft 511 kts 91°
2026-05-06 11:18 44.23234 71.29562 36993 ft 511 kts 91°
2026-05-06 11:18 44.22566 71.39185 36991 ft 511 kts 91°
2026-05-06 11:19 44.21905 71.49036 36996 ft 510 kts 91°
2026-05-06 11:19 44.21241 71.58895 36996 ft 510 kts 91°
2026-05-06 11:20 44.20454 71.70320 36998 ft 510 kts 91°
2026-05-06 11:20 44.19887 71.78487 36997 ft 509 kts 91°
2026-05-06 11:21 44.19197 71.88272 36999 ft 508 kts 91°
2026-05-06 11:21 44.18499 71.98091 37001 ft 507 kts 92°
2026-05-06 11:22 44.17799 72.07780 37003 ft 506 kts 92°
2026-05-06 11:22 44.17088 72.17532 37001 ft 506 kts 92°
2026-05-06 11:23 44.16367 72.27292 37005 ft 505 kts 92°
2026-05-06 11:23 44.15641 72.37023 37003 ft 505 kts 93°
2026-05-06 11:24 44.14906 72.46737 37002 ft 504 kts 93°
2026-05-06 11:24 44.14175 72.56302 37005 ft 504 kts 93°
2026-05-06 11:25 44.13418 72.66096 37004 ft 504 kts 94°
2026-05-06 11:25 44.12661 72.75786 37005 ft 504 kts 94°
2026-05-06 11:26 44.11902 72.85386 37006 ft 503 kts 94°
2026-05-06 11:26 44.11155 72.94731 37004 ft 503 kts 94°
2026-05-06 11:27 44.10357 73.04546 37007 ft 503 kts 95°
2026-05-06 11:27 44.09554 73.14220 37002 ft 503 kts 95°
2026-05-06 11:28 44.08750 73.23880 37005 ft 502 kts 95°
2026-05-06 11:28 44.07934 73.33531 37003 ft 502 kts 95°
2026-05-06 11:29 44.07115 73.43154 37002 ft 502 kts 95°
2026-05-06 11:29 44.06286 73.52777 37002 ft 502 kts 95°
2026-05-06 11:30 44.05444 73.62456 37007 ft 503 kts 95°
2026-05-06 11:30 44.04600 73.72069 37008 ft 503 kts 95°
2026-05-06 11:31 44.03744 73.81712 37009 ft 503 kts 95°
2026-05-06 11:31 44.02898 73.91160 37015 ft 502 kts 96°
2026-05-06 11:32 44.02028 74.00781 37013 ft 503 kts 96°
2026-05-06 11:32 44.01152 74.10385 37017 ft 502 kts 96°
2026-05-06 11:33 44.00263 74.20033 37023 ft 503 kts 96°
2026-05-06 11:33 43.99401 74.29300 37020 ft 502 kts 96°
2026-05-06 11:34 43.98502 74.38875 37033 ft 502 kts 96°
2026-05-06 11:34 43.97588 74.48530 37033 ft 502 kts 96°
2026-05-06 11:35 43.96721 74.58152 37043 ft 502 kts 95°
2026-05-06 11:35 43.95914 74.67699 37045 ft 502 kts 96°
2026-05-06 11:36 43.95048 74.77320 37043 ft 502 kts 96°
2026-05-06 11:36 43.94196 74.87010 37044 ft 502 kts 96°
2026-05-06 11:37 43.93329 74.96579 37047 ft 503 kts 96°
2026-05-06 11:37 43.92465 75.06139 37042 ft 502 kts 96°
2026-05-06 11:38 43.91582 75.15750 37037 ft 502 kts 97°
2026-05-06 11:38 43.90693 75.25373 37032 ft 502 kts 97°
2026-05-06 11:39 43.89800 75.34940 37033 ft 502 kts 97°
2026-05-06 11:39 43.88896 75.44529 37027 ft 502 kts 97°
2026-05-06 11:40 43.87988 75.54080 37021 ft 501 kts 97°
2026-05-06 11:40 43.87069 75.63661 37021 ft 501 kts 97°
2026-05-06 11:41 43.86142 75.73235 37010 ft 501 kts 97°
2026-05-06 11:41 43.85218 75.82690 37013 ft 500 kts 98°
2026-05-06 11:42 43.84279 75.92217 37010 ft 500 kts 98°
2026-05-06 11:42 43.83302 76.01729 37014 ft 499 kts 101°
2026-05-06 11:43 43.82197 76.11248 36996 ft 500 kts 99°
2026-05-06 11:43 43.81079 76.20758 36999 ft 500 kts 100°
2026-05-06 11:44 43.79401 76.34890 36995 ft 500 kts 99°
2026-05-06 11:44 43.78251 76.44381 36995 ft 500 kts 100°
2026-05-06 11:45 43.77110 76.53864 36993 ft 500 kts 100°
2026-05-06 11:45 43.75960 76.63288 36992 ft 499 kts 100°
2026-05-06 11:46 43.74802 76.72735 36990 ft 498 kts 100°
2026-05-06 11:46 43.73636 76.82175 36988 ft 498 kts 100°
2026-05-06 11:47 43.72458 76.91641 36990 ft 498 kts 100°
2026-05-06 11:47 43.71283 77.01020 36993 ft 498 kts 100°
2026-05-06 11:48 43.70092 77.10463 36994 ft 498 kts 100°
2026-05-06 11:48 43.68886 77.19952 36997 ft 498 kts 100°
2026-05-06 11:49 43.67676 77.29366 36997 ft 498 kts 101°
2026-05-06 11:49 43.66458 77.38781 36997 ft 498 kts 101°
2026-05-06 11:50 43.65244 77.48102 37008 ft 498 kts 101°
2026-05-06 11:50 43.64010 77.57506 37008 ft 498 kts 101°
2026-05-06 11:51 43.62769 77.66911 37010 ft 498 kts 101°
2026-05-06 11:51 43.61521 77.76300 37012 ft 498 kts 101°
2026-05-06 11:52 43.60263 77.85707 37025 ft 498 kts 101°
2026-05-06 11:52 43.58998 77.95104 37030 ft 499 kts 101°
2026-05-06 11:53 43.57731 78.04458 37038 ft 499 kts 100°
2026-05-06 11:53 43.57310 78.13922 37049 ft 501 kts 91°
2026-05-06 11:54 43.57167 78.23530 37046 ft 502 kts 91°
2026-05-06 11:54 43.56980 78.33128 37043 ft 502 kts 91°
2026-05-06 11:55 43.56806 78.42769 37042 ft 502 kts 91°
2026-05-06 11:55 43.56612 78.52327 37039 ft 503 kts 91°
2026-05-06 11:56 43.56419 78.61869 37033 ft 502 kts 91°
2026-05-06 11:56 43.56211 78.71498 37027 ft 502 kts 91°
2026-05-06 11:57 43.56001 78.80994 37023 ft 501 kts 91°
2026-05-06 11:57 43.55784 78.90360 37021 ft 501 kts 91°
2026-05-06 11:58 43.55555 78.99949 37019 ft 500 kts 91°
2026-05-06 11:58 43.55358 79.07916 37018 ft 500 kts 91°
2026-05-06 11:59 43.55115 79.17496 37020 ft 500 kts 91°
2026-05-06 11:59 43.54863 79.27081 37014 ft 500 kts 91°
2026-05-06 12:00 43.54604 79.36648 37018 ft 500 kts 91°
2026-05-06 12:00 43.54337 79.46193 37015 ft 499 kts 92°
2026-05-06 12:01 43.54067 79.55561 37016 ft 499 kts 92°
2026-05-06 12:01 43.53785 79.65067 37015 ft 498 kts 92°
2026-05-06 12:02 43.53516 79.73924 37024 ft 498 kts 92°
2026-05-06 12:02 43.53217 79.83493 37024 ft 499 kts 92°
2026-05-06 12:03 43.52912 79.93035 37030 ft 498 kts 92°
2026-05-06 12:03 43.52599 80.02587 37030 ft 499 kts 92°
2026-05-06 12:04 43.52279 80.12076 37033 ft 500 kts 92°
2026-05-06 12:04 43.51948 80.21693 37042 ft 501 kts 92°
2026-05-06 12:05 43.51609 80.31274 37039 ft 501 kts 92°
2026-05-06 12:05 43.51260 80.40908 37042 ft 502 kts 92°
2026-05-06 12:06 43.50907 80.50441 37045 ft 501 kts 92°
2026-05-06 12:06 43.50548 80.59924 37052 ft 501 kts 92°
2026-05-06 12:07 43.50175 80.69569 37056 ft 501 kts 92°
2026-05-06 12:07 43.49990 80.79027 37053 ft 501 kts 90°
2026-05-06 12:08 43.49790 80.88604 37055 ft 500 kts 90°
2026-05-06 12:08 43.49680 80.98057 37050 ft 499 kts 90°
2026-05-06 12:09 43.49509 81.07616 37052 ft 499 kts 90°
2026-05-06 12:09 43.49357 81.17157 37053 ft 497 kts 90°
2026-05-06 12:10 43.49185 81.26667 37048 ft 497 kts 90°
2026-05-06 12:10 43.49010 81.36181 37040 ft 496 kts 90°
2026-05-06 12:11 43.48825 81.45681 37038 ft 495 kts 90°
2026-05-06 12:11 43.48634 81.55139 37034 ft 493 kts 90°
2026-05-06 12:12 43.48436 81.64567 37027 ft 492 kts 91°
2026-05-06 12:12 43.48227 81.74018 37026 ft 494 kts 91°
2026-05-06 12:13 43.47994 81.83410 37021 ft 493 kts 91°
2026-05-06 12:13 43.47763 81.92793 37015 ft 493 kts 91°
2026-05-06 12:14 43.47519 82.02217 37013 ft 492 kts 91°
2026-05-06 12:14 43.47272 82.11547 37013 ft 492 kts 91°
2026-05-06 12:15 43.47014 82.20962 37009 ft 492 kts 91°
2026-05-06 12:15 43.46748 82.30384 37005 ft 492 kts 91°
2026-05-06 12:16 43.46475 82.39799 36999 ft 492 kts 91°
2026-05-06 12:16 43.46194 82.49199 37003 ft 491 kts 91°
2026-05-06 12:17 43.45906 82.58587 37005 ft 490 kts 92°
2026-05-06 12:17 43.45611 82.67951 37009 ft 490 kts 92°
2026-05-06 12:18 43.45308 82.77339 37024 ft 490 kts 92°
2026-05-06 12:18 43.44997 82.86720 37033 ft 490 kts 92°
2026-05-06 12:19 43.44681 82.96020 37032 ft 490 kts 92°
2026-05-06 12:19 43.44355 83.05405 37051 ft 490 kts 92°
2026-05-06 12:20 43.44022 83.14764 37063 ft 489 kts 92°
2026-05-06 12:20 43.43680 83.24137 37074 ft 489 kts 92°
2026-05-06 12:21 43.43332 83.33487 37077 ft 489 kts 92°
2026-05-06 12:21 43.42740 83.42810 37076 ft 489 kts 96°
2026-05-06 12:22 43.41986 83.52117 37094 ft 489 kts 96°
2026-05-06 12:22 43.41192 83.61408 37095 ft 489 kts 96°
2026-05-06 12:23 43.40411 83.70645 37113 ft 489 kts 96°
2026-05-06 12:23 43.39611 83.79919 37117 ft 489 kts 96°
2026-05-06 12:24 43.38806 83.89202 37121 ft 489 kts 96°
2026-05-06 12:24 43.37992 83.98494 37133 ft 490 kts 96°
2026-05-06 12:25 43.37168 84.07805 37141 ft 490 kts 96°
2026-05-06 12:25 43.36337 84.17120 37146 ft 490 kts 96°
2026-05-06 12:26 43.35504 84.26357 37155 ft 490 kts 97°
2026-05-06 12:26 43.34784 84.34279 37157 ft 490 kts 97°
2026-05-06 12:27 43.34060 84.42112 37172 ft 491 kts 97°
2026-05-06 12:27 43.33217 84.50915 37173 ft 490 kts 97°
2026-05-06 12:28 43.32333 84.60231 37190 ft 490 kts 97°
2026-05-06 12:28 43.31450 84.69376 37199 ft 490 kts 97°
2026-05-06 12:29 43.30563 84.78520 37202 ft 490 kts 97°
2026-05-06 12:29 43.29648 84.87857 37208 ft 491 kts 97°
2026-05-06 12:30 43.28763 84.96822 37212 ft 491 kts 97°
2026-05-06 12:30 43.27832 85.06165 37217 ft 491 kts 97°
2026-05-06 12:31 43.26899 85.15460 37217 ft 491 kts 97°
2026-05-06 12:31 43.25957 85.24761 37222 ft 492 kts 97°
2026-05-06 12:32 43.25006 85.34070 37223 ft 493 kts 97°
2026-05-06 12:32 43.24053 85.43318 37221 ft 493 kts 97°
2026-05-06 12:33 43.23091 85.52594 37217 ft 492 kts 97°
2026-05-06 12:33 43.22118 85.61886 37216 ft 491 kts 97°
2026-05-06 12:34 43.21141 85.71154 37218 ft 491 kts 97°
2026-05-06 12:34 43.20157 85.80407 37222 ft 490 kts 97°
2026-05-06 12:35 43.19190 85.89602 37221 ft 490 kts 94°
2026-05-06 12:35 43.19204 85.94331 37242 ft 488 kts 81°
2026-05-06 12:35 43.19863 85.98731 37252 ft 487 kts 70°
2026-05-06 12:36 43.21192 86.03075 37250 ft 486 kts 58°
2026-05-06 12:36 43.22986 86.06987 37244 ft 486 kts 56°
2026-05-06 12:36 43.26726 86.14740 37249 ft 486 kts 55°
2026-05-06 12:37 43.30449 86.22474 37247 ft 486 kts 55°
2026-05-06 12:37 43.34194 86.30134 37254 ft 485 kts 55°
2026-05-06 12:38 43.37952 86.37883 37251 ft 485 kts 55°
2026-05-06 12:38 43.41032 86.44245 37249 ft 485 kts 55°
2026-05-06 12:39 43.45430 86.53270 37238 ft 485 kts 55°
2026-05-06 12:39 43.49178 86.60972 37220 ft 484 kts 55°
2026-05-06 12:40 43.52920 86.68689 37208 ft 484 kts 55°
2026-05-06 12:40 43.56623 86.76390 37197 ft 486 kts 56°
2026-05-06 12:41 43.60297 86.84202 37183 ft 486 kts 55°
2026-05-06 12:41 43.64002 86.92004 37174 ft 486 kts 56°
2026-05-06 12:42 43.67676 86.99818 37159 ft 486 kts 56°
2026-05-06 12:42 43.71348 87.07617 37150 ft 485 kts 56°
2026-05-06 12:43 43.74400 87.14128 37131 ft 485 kts 56°
2026-05-06 12:43 43.78063 87.21975 37119 ft 485 kts 56°
2026-05-06 12:44 43.81721 87.29828 37113 ft 485 kts 56°
2026-05-06 12:44 43.85368 87.37680 37118 ft 485 kts 56°
2026-05-06 12:45 43.89018 87.45559 37113 ft 486 kts 56°
2026-05-06 12:46 43.94833 87.56966 37115 ft 485 kts 51°
2026-05-06 12:46 43.98909 87.64427 37115 ft 485 kts 51°
2026-05-06 12:47 44.02986 87.71891 37109 ft 485 kts 51°
2026-05-06 12:47 44.07054 87.79364 37102 ft 485 kts 51°
2026-05-06 12:48 44.11118 87.86846 37107 ft 484 kts 51°
2026-05-06 12:48 44.15172 87.94340 37110 ft 484 kts 53°
2026-05-06 12:48 44.16876 87.98373 37124 ft 486 kts 65°
2026-05-06 12:49 44.17995 88.02828 37123 ft 489 kts 76°
2026-05-06 12:49 44.19410 88.12097 37107 ft 489 kts 77°
2026-05-06 12:50 44.20780 88.21372 37107 ft 487 kts 77°
2026-05-06 12:50 44.22160 88.30632 37113 ft 488 kts 77°
2026-05-06 12:51 44.23519 88.39881 37095 ft 489 kts 77°
2026-05-06 12:51 44.24873 88.49111 37094 ft 488 kts 77°
2026-05-06 12:52 44.26234 88.58463 37091 ft 488 kts 77°
2026-05-06 12:52 44.27570 88.67687 37089 ft 489 kts 77°
2026-05-06 12:53 44.28909 88.76996 37086 ft 488 kts 77°
2026-05-06 12:53 44.30237 88.86285 37079 ft 488 kts 77°
2026-05-06 12:54 44.31560 88.95598 37080 ft 488 kts 77°
2026-05-06 12:54 44.32874 89.04897 37083 ft 489 kts 77°
2026-05-06 12:55 44.34181 89.14212 37074 ft 488 kts 77°
2026-05-06 12:55 44.35469 89.23449 37073 ft 487 kts 77°
2026-05-06 12:56 44.36758 89.32743 37067 ft 486 kts 78°
2026-05-06 12:56 44.38037 89.42027 37069 ft 487 kts 78°
2026-05-06 12:57 44.39311 89.51334 37068 ft 487 kts 78°
2026-05-06 12:57 44.40573 89.60617 37070 ft 487 kts 78°
2026-05-06 12:58 44.41209 89.70032 37076 ft 489 kts 95°
2026-05-06 12:58 44.40581 89.74728 37100 ft 491 kts 106°
2026-05-06 12:58 44.39618 89.79241 37070 ft 491 kts 105°
2026-05-06 12:59 44.37635 89.88364 37070 ft 490 kts 106°
2026-05-06 12:59 44.35652 89.97486 37071 ft 489 kts 106°
2026-05-06 13:00 44.33666 90.06575 37077 ft 489 kts 106°
2026-05-06 13:00 44.31674 90.15644 37071 ft 489 kts 106°
2026-05-06 13:01 44.29674 90.24722 37072 ft 490 kts 106°
2026-05-06 13:01 44.27658 90.33829 37084 ft 490 kts 106°
2026-05-06 13:02 44.25637 90.42918 37076 ft 490 kts 106°
2026-05-06 13:02 44.23610 90.52000 37087 ft 490 kts 106°
2026-05-06 13:03 44.21597 90.60978 37086 ft 490 kts 106°
2026-05-06 13:03 44.19546 90.70085 37094 ft 489 kts 106°
2026-05-06 13:04 44.17487 90.79192 37094 ft 490 kts 106°
2026-05-06 13:04 44.15443 90.88197 37097 ft 491 kts 106°
2026-05-06 13:05 44.13377 90.97259 37101 ft 490 kts 107°
2026-05-06 13:05 44.11312 91.06279 37101 ft 489 kts 107°
2026-05-06 13:06 44.09238 91.15313 37109 ft 489 kts 107°
2026-05-06 13:06 44.07209 91.24110 37107 ft 490 kts 107°
2026-05-06 13:07 44.05183 91.32861 37108 ft 491 kts 107°
2026-05-06 13:07 44.03063 91.41979 37119 ft 490 kts 107°
2026-05-06 13:08 44.00984 91.50808 37122 ft 490 kts 107°
2026-05-06 13:08 43.98852 91.59803 37128 ft 490 kts 107°
2026-05-06 13:09 43.96729 91.68751 37135 ft 491 kts 107°
2026-05-06 13:09 43.94579 91.77755 37141 ft 491 kts 107°
2026-05-06 13:10 43.92487 91.86496 37148 ft 490 kts 107°
2026-05-06 13:10 43.90362 91.95332 37153 ft 491 kts 107°
2026-05-06 13:11 43.88226 92.04185 37160 ft 490 kts 107°
2026-05-06 13:11 43.86178 92.12634 37162 ft 490 kts 107°
2026-05-06 13:12 43.84096 92.21198 37166 ft 491 kts 108°
2026-05-06 13:12 43.82046 92.29589 37166 ft 491 kts 108°
2026-05-06 13:13 43.79886 92.38409 37166 ft 491 kts 108°
2026-05-06 13:13 43.77680 92.47373 37166 ft 491 kts 108°
2026-05-06 13:14 43.75482 92.56274 37166 ft 491 kts 108°
2026-05-06 13:14 43.73265 92.65216 37158 ft 491 kts 108°
2026-05-06 13:15 43.71045 92.74139 37163 ft 491 kts 108°
2026-05-06 13:15 43.68816 92.83058 37168 ft 490 kts 108°
2026-05-06 13:16 43.66582 92.91966 37167 ft 491 kts 108°
2026-05-06 13:16 43.64405 93.00830 37179 ft 490 kts 106°
2026-05-06 13:17 43.62233 93.09789 37182 ft 491 kts 108°
2026-05-06 13:17 43.60098 93.18752 37184 ft 492 kts 107°
2026-05-06 13:18 43.57936 93.27735 37188 ft 493 kts 108°
2026-05-06 13:18 43.55767 93.36705 37191 ft 493 kts 108°
2026-05-06 13:19 43.53598 93.45671 37193 ft 493 kts 108°
2026-05-06 13:19 43.51428 93.54574 37198 ft 493 kts 108°
2026-05-06 13:20 43.49249 93.63502 37195 ft 493 kts 108°
2026-05-06 13:20 43.47051 93.72454 37201 ft 493 kts 108°
2026-05-06 13:21 43.44857 93.81371 37201 ft 494 kts 108°
2026-05-06 13:21 43.42642 93.90328 37204 ft 494 kts 108°
2026-05-06 13:22 43.40422 93.99276 37209 ft 494 kts 108°
2026-05-06 13:22 43.38198 94.08201 37208 ft 493 kts 108°
2026-05-06 13:23 43.35966 94.17126 37207 ft 494 kts 108°
2026-05-06 13:23 43.33727 94.26046 37211 ft 494 kts 108°
2026-05-06 13:24 43.31476 94.34977 37207 ft 494 kts 109°
2026-05-06 13:24 43.29243 94.43808 37208 ft 495 kts 109°
2026-05-06 13:25 43.26951 94.52831 37208 ft 495 kts 109°
2026-05-06 13:25 43.24676 94.61758 37204 ft 496 kts 109°
2026-05-06 13:26 43.22416 94.70588 37188 ft 497 kts 109°
2026-05-06 13:26 43.20121 94.79526 37178 ft 497 kts 109°
2026-05-06 13:27 43.17822 94.88445 37170 ft 497 kts 109°
2026-05-06 13:27 43.15885 94.95928 37159 ft 498 kts 109°
2026-05-06 13:28 43.13393 95.04698 37169 ft 497 kts 120°
2026-05-06 13:28 43.11446 95.08602 37168 ft 498 kts 132°
2026-05-06 13:28 43.08980 95.11906 37165 ft 497 kts 143°
2026-05-06 13:29 43.03309 95.17318 37145 ft 497 kts 147°
2026-05-06 13:29 42.97635 95.22571 37141 ft 497 kts 147°
2026-05-06 13:30 42.91998 95.27825 37143 ft 496 kts 147°
2026-05-06 13:30 42.86249 95.33145 37137 ft 496 kts 147°
2026-05-06 13:31 42.80540 95.38429 37134 ft 496 kts 147°
2026-05-06 13:31 42.74825 95.43700 37134 ft 496 kts 147°
2026-05-06 13:32 42.69097 95.48973 37134 ft 497 kts 148°
2026-05-06 13:32 42.63415 95.54192 37132 ft 497 kts 148°
2026-05-06 13:33 42.57667 95.59460 37131 ft 498 kts 148°
2026-05-06 13:33 42.51910 95.64725 37131 ft 499 kts 148°
2026-05-06 13:34 42.46144 95.69997 37137 ft 500 kts 146°
2026-05-06 13:34 42.43517 95.73101 37165 ft 504 kts 133°
2026-05-06 13:34 42.41361 95.76866 37160 ft 508 kts 122°
2026-05-06 13:34 42.39767 95.81141 37171 ft 510 kts 110°
2026-05-06 13:35 42.38803 95.85753 37179 ft 510 kts 99°
2026-05-06 13:35 42.38325 95.95339 37153 ft 511 kts 92°
2026-05-06 13:36 42.38084 96.04947 37157 ft 511 kts 92°
2026-05-06 13:36 42.37799 96.14561 37158 ft 512 kts 92°
2026-05-06 13:37 42.37523 96.24179 37158 ft 512 kts 92°
2026-05-06 13:37 42.37237 96.33615 37159 ft 512 kts 92°
2026-05-06 13:38 42.36936 96.43358 37159 ft 512 kts 92°
2026-05-06 13:38 42.36632 96.52916 37160 ft 512 kts 92°
2026-05-06 13:39 42.36318 96.62539 37158 ft 513 kts 92°
2026-05-06 13:39 42.35996 96.72177 37154 ft 513 kts 92°
2026-05-06 13:40 42.35665 96.81815 37151 ft 513 kts 92°
2026-05-06 13:40 42.35327 96.91447 37149 ft 513 kts 92°
2026-05-06 13:41 42.34981 97.01070 37150 ft 513 kts 92°
2026-05-06 13:41 42.34626 97.10709 37145 ft 513 kts 92°
2026-05-06 13:42 42.34266 97.20274 37144 ft 515 kts 92°
2026-05-06 13:42 42.33893 97.29946 37140 ft 515 kts 92°
2026-05-06 13:43 42.33512 97.39632 37145 ft 516 kts 92°
2026-05-06 13:43 42.33125 97.49258 37137 ft 516 kts 92°
2026-05-06 13:44 42.32727 97.58970 37138 ft 516 kts 92°
2026-05-06 13:44 42.32322 97.68652 37140 ft 516 kts 93°
2026-05-06 13:45 42.31909 97.78306 37137 ft 517 kts 93°
2026-05-06 13:45 42.31280 97.92664 37329 ft 521 kts 93°
2026-05-06 13:46 42.31073 97.97324 37602 ft 522 kts 93°
2026-05-06 13:46 42.30850 98.02272 37847 ft 523 kts 93°
2026-05-06 13:46 42.30630 98.07106 38085 ft 525 kts 93°
2026-05-06 13:46 42.30404 98.12031 38329 ft 526 kts 93°
2026-05-06 13:47 42.30175 98.16975 38570 ft 527 kts 93°
2026-05-06 13:47 42.29945 98.21910 38789 ft 528 kts 93°
2026-05-06 13:47 42.29713 98.26809 38988 ft 529 kts 93°
2026-05-06 13:47 42.29496 98.31368 39123 ft 531 kts 93°
2026-05-06 13:48 42.28994 98.41291 39118 ft 533 kts 94°
2026-05-06 13:48 42.28612 98.48618 39117 ft 530 kts 93°
2026-05-06 13:49 42.28241 98.55869 39113 ft 531 kts 93°
2026-05-06 13:49 42.27774 98.64649 39116 ft 532 kts 94°
2026-05-06 13:50 42.27237 98.74687 39115 ft 533 kts 94°
2026-05-06 13:50 42.26693 98.84664 39116 ft 533 kts 94°
2026-05-06 13:51 42.26140 98.94654 39118 ft 533 kts 94°
2026-05-06 13:51 42.25579 99.04618 39119 ft 533 kts 94°
2026-05-06 13:52 42.25008 99.14609 39120 ft 533 kts 94°
2026-05-06 13:52 42.24436 99.24485 39119 ft 533 kts 94°
2026-05-06 13:53 42.23847 99.34481 39117 ft 534 kts 94°
2026-05-06 13:53 42.23250 99.44481 39122 ft 534 kts 94°
2026-05-06 13:54 42.22643 99.54485 39122 ft 535 kts 94°
2026-05-06 13:54 42.22041 99.64281 39122 ft 536 kts 94°
2026-05-06 13:55 42.21416 99.74301 39124 ft 536 kts 94°
2026-05-06 13:55 42.20794 99.84127 39124 ft 536 kts 94°
2026-05-06 13:56 42.20152 99.94143 39126 ft 536 kts 94°
2026-05-06 13:56 42.19499 100.04182 39125 ft 537 kts 94°
2026-05-06 13:57 42.18838 100.14218 39125 ft 538 kts 94°
2026-05-06 13:57 42.18166 100.24279 39124 ft 538 kts 94°
2026-05-06 13:58 42.17487 100.34306 39128 ft 538 kts 94°
2026-05-06 13:58 42.16798 100.44364 39120 ft 539 kts 94°
2026-05-06 13:59 42.16101 100.54391 39125 ft 540 kts 94°
2026-05-06 13:59 42.15393 100.64465 39121 ft 539 kts 94°
2026-05-06 14:00 42.14675 100.74553 39129 ft 540 kts 94°
2026-05-06 14:00 42.13948 100.84623 39126 ft 540 kts 94°
2026-05-06 14:01 42.13211 100.94728 39128 ft 542 kts 94°
2026-05-06 14:01 42.12279 101.04796 39152 ft 543 kts 105°
2026-05-06 14:02 42.09882 101.14395 39135 ft 544 kts 110°
2026-05-06 14:02 42.07358 101.23991 39132 ft 544 kts 110°
2026-05-06 14:03 42.04838 101.33606 39138 ft 545 kts 110°
2026-05-06 14:03 42.02296 101.43215 39136 ft 545 kts 110°
2026-05-06 14:04 41.99746 101.52850 39136 ft 546 kts 110°
2026-05-06 14:04 41.97201 101.62404 39143 ft 547 kts 110°
2026-05-06 14:05 41.94637 101.72008 39146 ft 548 kts 110°
2026-05-06 14:05 41.92053 101.81642 39144 ft 548 kts 110°
2026-05-06 14:06 41.89494 101.91147 39145 ft 549 kts 110°
2026-05-06 14:06 41.86853 102.00918 39147 ft 550 kts 111°
2026-05-06 14:07 41.84235 102.10565 39160 ft 550 kts 111°
2026-05-06 14:07 41.81609 102.20206 39157 ft 551 kts 111°
2026-05-06 14:08 41.78971 102.29854 39158 ft 551 kts 111°
2026-05-06 14:08 41.76331 102.39470 39163 ft 552 kts 111°
2026-05-06 14:09 41.74136 102.47436 39170 ft 552 kts 111°
2026-05-06 14:09 41.71464 102.57101 39173 ft 553 kts 111°
2026-05-06 14:10 41.68782 102.66765 39177 ft 554 kts 111°
2026-05-06 14:10 41.66088 102.76436 39177 ft 554 kts 111°
2026-05-06 14:11 41.63401 102.86053 39183 ft 556 kts 111°
2026-05-06 14:11 41.60701 102.95674 39187 ft 556 kts 111°
2026-05-06 14:12 41.57976 103.05349 39188 ft 557 kts 111°
2026-05-06 14:12 41.55235 103.15035 39197 ft 557 kts 112°
2026-05-06 14:13 41.52485 103.24720 39200 ft 558 kts 112°
2026-05-06 14:13 41.49743 103.34334 39198 ft 558 kts 112°
2026-05-06 14:14 41.47018 103.43858 39200 ft 558 kts 112°
2026-05-06 14:14 41.44242 103.53523 39204 ft 558 kts 112°
2026-05-06 14:15 41.41457 103.63182 39208 ft 558 kts 112°
2026-05-06 14:15 41.38661 103.72843 39210 ft 558 kts 112°
2026-05-06 14:16 41.35856 103.82500 39210 ft 558 kts 112°
2026-05-06 14:16 41.33100 103.91953 39208 ft 558 kts 112°
2026-05-06 14:17 41.30250 104.01694 39205 ft 558 kts 112°
2026-05-06 14:17 41.27423 104.11319 39210 ft 559 kts 113°
2026-05-06 14:18 41.24595 104.20909 39209 ft 559 kts 113°
2026-05-06 14:18 41.21785 104.30405 39213 ft 559 kts 113°
2026-05-06 14:19 41.18930 104.40018 39218 ft 560 kts 113°
2026-05-06 14:19 41.16062 104.49641 39226 ft 560 kts 113°
2026-05-06 14:20 41.13186 104.59254 39216 ft 558 kts 113°
2026-05-06 14:20 41.10299 104.68867 39226 ft 563 kts 113°
2026-05-06 14:21 41.07114 104.78410 39253 ft 572 kts 115°
2026-05-06 14:21 41.03865 104.88144 39257 ft 581 kts 116°
2026-05-06 14:22 41.00527 104.97934 39259 ft 584 kts 116°
2026-05-06 14:22 40.97219 105.07720 39262 ft 584 kts 116°
2026-05-06 14:23 40.93876 105.17492 39269 ft 584 kts 116°
2026-05-06 14:23 40.90542 105.27257 39273 ft 584 kts 116°
2026-05-06 14:24 40.87175 105.37053 39276 ft 584 kts 116°
2026-05-06 14:24 40.83807 105.46835 39277 ft 585 kts 116°
2026-05-06 14:25 40.80432 105.56594 39279 ft 585 kts 116°
2026-05-06 14:25 40.77103 105.66192 39279 ft 585 kts 117°
2026-05-06 14:26 40.73646 105.76122 39280 ft 585 kts 117°
2026-05-06 14:26 40.70241 105.85869 39281 ft 585 kts 117°
2026-05-06 14:27 40.66827 105.95610 39284 ft 586 kts 117°
2026-05-06 14:27 40.63421 106.05294 39283 ft 586 kts 117°
2026-05-06 14:28 40.59963 106.15092 39278 ft 586 kts 117°
2026-05-06 14:28 40.56521 106.24812 39272 ft 586 kts 117°
2026-05-06 14:29 40.53091 106.34467 39267 ft 586 kts 117°
2026-05-06 14:29 40.49633 106.44167 39267 ft 585 kts 117°
2026-05-06 14:30 40.46177 106.53828 39264 ft 584 kts 117°
2026-05-06 14:30 40.42711 106.63483 39273 ft 584 kts 117°
2026-05-06 14:31 40.39269 106.73042 39265 ft 584 kts 118°
2026-05-06 14:31 40.35793 106.82664 39267 ft 584 kts 118°
2026-05-06 14:32 40.32641 106.92456 39304 ft 586 kts 105°
2026-05-06 14:32 40.31888 106.97713 39309 ft 588 kts 94°
2026-05-06 14:32 40.31806 107.02978 39310 ft 587 kts 83°
2026-05-06 14:33 40.32974 107.13589 39291 ft 585 kts 78°
2026-05-06 14:33 40.34298 107.24032 39291 ft 585 kts 78°
2026-05-06 14:34 40.35572 107.34561 39291 ft 585 kts 78°
2026-05-06 14:34 40.36866 107.45081 39285 ft 585 kts 78°
2026-05-06 14:35 40.38128 107.55568 39280 ft 584 kts 78°
2026-05-06 14:35 40.39396 107.66107 39287 ft 584 kts 78°
2026-05-06 14:36 40.40648 107.76636 39291 ft 584 kts 79°
2026-05-06 14:36 40.41892 107.87169 39296 ft 584 kts 79°
2026-05-06 14:37 40.43127 107.97708 39295 ft 584 kts 79°
2026-05-06 14:37 40.44348 108.08253 39292 ft 584 kts 79°
2026-05-06 14:38 40.45543 108.18642 39293 ft 584 kts 79°
2026-05-06 14:38 40.46745 108.29185 39295 ft 584 kts 79°
2026-05-06 14:39 40.47938 108.39739 39297 ft 584 kts 79°
2026-05-06 14:39 40.49112 108.50212 39296 ft 583 kts 79°
2026-05-06 14:40 40.50285 108.60768 39297 ft 583 kts 79°
2026-05-06 14:40 40.51447 108.71311 39298 ft 583 kts 79°
2026-05-06 14:41 40.52601 108.81873 39294 ft 583 kts 79°
2026-05-06 14:41 40.53743 108.92415 39293 ft 583 kts 80°
2026-05-06 14:42 40.54876 109.02969 39292 ft 583 kts 80°
2026-05-06 14:42 40.56001 109.13543 39296 ft 584 kts 80°
2026-05-06 14:43 40.57117 109.24127 39292 ft 584 kts 80°
2026-05-06 14:43 40.58219 109.34660 39287 ft 585 kts 80°
2026-05-06 14:44 40.59316 109.45261 39284 ft 584 kts 80°
2026-05-06 14:45 40.60939 109.61100 39283 ft 585 kts 80°
2026-05-06 14:45 40.62013 109.71713 39281 ft 585 kts 81°
2026-05-06 14:46 40.63001 109.81566 39279 ft 585 kts 81°
2026-05-06 14:46 40.64064 109.92262 39281 ft 584 kts 81°
2026-05-06 14:47 40.64664 110.02890 39285 ft 585 kts 89°
2026-05-06 14:47 40.64593 110.13559 39276 ft 585 kts 90°
2026-05-06 14:48 40.64545 110.24342 39283 ft 584 kts 90°
2026-05-06 14:48 40.64471 110.35020 39268 ft 587 kts 90°
2026-05-06 14:49 40.64393 110.45792 39280 ft 587 kts 90°
2026-05-06 14:49 40.64321 110.54723 39275 ft 586 kts 90°
2026-05-06 14:50 40.64225 110.65457 39272 ft 586 kts 90°
2026-05-06 14:50 40.64121 110.76238 39271 ft 589 kts 90°
2026-05-06 14:51 40.64006 110.86937 39263 ft 588 kts 90°
2026-05-06 14:51 40.63880 110.97730 39261 ft 588 kts 90°
2026-05-06 14:52 40.63745 111.08429 39264 ft 588 kts 90°
2026-05-06 14:52 40.63601 111.19209 39256 ft 588 kts 91°
2026-05-06 14:53 40.63445 111.29968 39254 ft 588 kts 91°
2026-05-06 14:53 40.63282 111.40676 39242 ft 579 kts 91°
2026-05-06 14:54 40.63111 111.51134 39242 ft 567 kts 91°
2026-05-06 14:54 40.62934 111.61512 39248 ft 568 kts 91°
2026-05-06 14:55 40.62750 111.71744 39247 ft 569 kts 91°
2026-05-06 14:55 40.62551 111.82261 39261 ft 569 kts 91°
2026-05-06 14:56 40.62349 111.92666 39260 ft 569 kts 91°
2026-05-06 14:56 40.62151 112.03083 39258 ft 568 kts 92°
2026-05-06 14:57 40.61895 112.13493 39264 ft 569 kts 91°
2026-05-06 14:57 40.61679 112.23850 39263 ft 569 kts 92°
2026-05-06 14:58 40.61417 112.34273 39258 ft 569 kts 92°
2026-05-06 14:58 40.61170 112.44699 39252 ft 570 kts 92°
2026-05-06 14:59 40.60689 112.55091 39265 ft 570 kts 95°
2026-05-06 14:59 40.60144 112.65528 39261 ft 571 kts 95°
2026-05-06 15:00 40.59432 112.75907 39266 ft 570 kts 98°
2026-05-06 15:00 40.58697 112.86303 39247 ft 572 kts 96°
2026-05-06 15:01 40.57953 112.96722 39238 ft 572 kts 96°
2026-05-06 15:01 40.57285 113.07149 39239 ft 572 kts 96°
2026-05-06 15:02 40.56563 113.17575 39236 ft 571 kts 96°
2026-05-06 15:02 40.55852 113.27982 39232 ft 571 kts 96°
2026-05-06 15:03 40.55126 113.38396 39229 ft 572 kts 96°
2026-05-06 15:03 40.54387 113.48832 39226 ft 573 kts 96°
2026-05-06 15:04 40.53642 113.59277 39224 ft 574 kts 97°
2026-05-06 15:04 40.52891 113.69621 39216 ft 574 kts 97°
2026-05-06 15:05 40.52122 113.80123 39200 ft 574 kts 97°
2026-05-06 15:05 40.51344 113.90585 39194 ft 575 kts 97°
2026-05-06 15:06 40.50619 114.01073 39202 ft 576 kts 92°
2026-05-06 15:06 40.50182 114.11586 39185 ft 575 kts 95°
2026-05-06 15:07 40.49728 114.22079 39179 ft 575 kts 94°
2026-05-06 15:07 40.49279 114.32572 39170 ft 575 kts 95°
2026-05-06 15:08 40.48803 114.43069 39158 ft 575 kts 94°
2026-05-06 15:08 40.48333 114.53559 39150 ft 575 kts 95°
2026-05-06 15:09 40.47849 114.63890 39061 ft 570 kts 95°
2026-05-06 15:09 40.47605 114.69169 38183 ft 573 kts 95°
2026-05-06 15:09 40.47360 114.74335 37522 ft 557 kts 95°
2026-05-06 15:09 40.47117 114.79401 37021 ft 559 kts 96°
2026-05-06 15:10 40.46862 114.84572 36606 ft 573 kts 96°
2026-05-06 15:10 40.46606 114.89816 36237 ft 578 kts 96°
2026-05-06 15:10 40.46351 114.95088 35891 ft 578 kts 96°
2026-05-06 15:10 40.46090 115.00353 35560 ft 579 kts 96°
2026-05-06 15:11 40.45822 115.05645 35243 ft 579 kts 96°
2026-05-06 15:11 40.45554 115.10922 34947 ft 579 kts 96°
2026-05-06 15:11 40.45288 115.16164 34668 ft 580 kts 97°
2026-05-06 15:11 40.45017 115.21426 34385 ft 581 kts 97°
2026-05-06 15:12 40.44742 115.26703 34113 ft 578 kts 97°
2026-05-06 15:12 40.44469 115.31919 33792 ft 569 kts 97°
2026-05-06 15:12 40.44199 115.37056 33372 ft 562 kts 97°
2026-05-06 15:12 40.43777 115.42132 32797 ft 552 kts 108°
2026-05-06 15:13 40.42698 115.46949 32280 ft 535 kts 121°
2026-05-06 15:13 40.41046 115.51150 31774 ft 516 kts 133°
2026-05-06 15:13 40.38866 115.54744 31271 ft 493 kts 146°
2026-05-06 15:13 40.36290 115.57552 30762 ft 468 kts 159°
2026-05-06 15:14 40.33486 115.59534 30232 ft 448 kts 168°
2026-05-06 15:14 40.30636 115.61121 29601 ft 442 kts 169°
2026-05-06 15:14 40.27812 115.62707 28959 ft 443 kts 166°
2026-05-06 15:14 40.25035 115.64504 28312 ft 444 kts 163°
2026-05-06 15:15 40.22298 115.66325 27721 ft 440 kts 164°
2026-05-06 15:15 40.19575 115.68020 27097 ft 435 kts 165°
2026-05-06 15:15 40.16837 115.69674 26515 ft 433 kts 165°
2026-05-06 15:15 40.14116 115.71369 25972 ft 431 kts 163°
2026-05-06 15:16 40.11506 115.73026 25421 ft 429 kts 163°
2026-05-06 15:16 40.08837 115.74700 24901 ft 425 kts 163°
2026-05-06 15:16 40.06202 115.76328 24311 ft 424 kts 163°
2026-05-06 15:16 40.03515 115.77993 23772 ft 421 kts 163°
2026-05-06 15:17 40.00908 115.79622 23167 ft 419 kts 163°
2026-05-06 15:17 39.98252 115.81065 22542 ft 406 kts 172°
2026-05-06 15:17 39.95534 115.81819 21963 ft 392 kts 182°
2026-05-06 15:17 39.92857 115.81930 21345 ft 379 kts 192°
2026-05-06 15:18 39.90292 115.81452 20666 ft 368 kts 202°
2026-05-06 15:18 39.87880 115.80441 20122 ft 357 kts 211°
2026-05-06 15:18 39.85700 115.78976 19499 ft 349 kts 219°
2026-05-06 15:18 39.83793 115.77143 18935 ft 342 kts 227°
2026-05-06 15:19 39.82376 115.75323 18492 ft 335 kts 234°
2026-05-06 15:19 39.80992 115.72964 17837 ft 330 kts 242°
2026-05-06 15:19 39.79854 115.70237 17177 ft 324 kts 250°
2026-05-06 15:19 39.79103 115.67534 16530 ft 320 kts 257°
2026-05-06 15:20 39.78791 115.64720 16215 ft 308 kts 273°
2026-05-06 15:20 39.79025 115.61938 16260 ft 317 kts 282°
2026-05-06 15:20 39.79749 115.59184 16292 ft 326 kts 294°
2026-05-06 15:20 39.80961 115.56668 16266 ft 332 kts 306°
2026-05-06 15:21 39.82621 115.54557 16292 ft 338 kts 318°
2026-05-06 15:21 39.84670 115.52985 16277 ft 347 kts 331°
2026-05-06 15:21 39.87017 115.52096 16285 ft 357 kts 345°
2026-05-06 15:21 39.89530 115.52010 16292 ft 367 kts 360°
2026-05-06 15:22 39.92039 115.52797 16289 ft 378 kts 15°
2026-05-06 15:22 39.94363 115.54483 16292 ft 390 kts 32°
2026-05-06 15:22 39.96299 115.57019 16295 ft 400 kts 50°
2026-05-06 15:22 39.97632 115.60231 16301 ft 409 kts 68°
2026-05-06 15:23 39.98268 115.63835 16288 ft 413 kts 78°
2026-05-06 15:23 39.98739 115.67548 16274 ft 413 kts 79°
2026-05-06 15:23 39.99169 115.71251 16280 ft 414 kts 80°
2026-05-06 15:23 39.99584 115.74967 16263 ft 413 kts 83°
2026-05-06 15:24 39.99446 115.78710 16267 ft 415 kts 102°
2026-05-06 15:24 39.98534 115.82254 16267 ft 411 kts 120°
2026-05-06 15:24 39.96985 115.85291 16259 ft 406 kts 132°
2026-05-06 15:24 39.95209 115.88216 16251 ft 404 kts 133°
2026-05-06 15:25 39.93474 115.90981 16216 ft 385 kts 133°
2026-05-06 15:25 39.91806 115.93655 15682 ft 356 kts 133°
2026-05-06 15:25 39.90272 115.96128 14642 ft 348 kts 133°
2026-05-06 15:25 39.88764 115.98556 13678 ft 342 kts 133°
2026-05-06 15:26 39.87281 116.00942 12651 ft 334 kts 132°
2026-05-06 15:26 39.85859 116.03233 11673 ft 326 kts 132°
2026-05-06 15:26 39.84430 116.05524 11293 ft 321 kts 133°
2026-05-06 15:26 39.83032 116.07767 10838 ft 318 kts 132°
2026-05-06 15:27 39.81648 116.09987 10425 ft 314 kts 132°
2026-05-06 15:27 39.80281 116.12180 10002 ft 311 kts 132°
2026-05-06 15:27 39.79364 116.13649 9689 ft 309 kts 132°
2026-05-06 15:28 39.78956 116.14301 9564 ft 308 kts 131°
2026-05-06 15:28 39.77636 116.16413 9077 ft 306 kts 131°
2026-05-06 15:28 39.76298 116.18554 8573 ft 304 kts 130°
2026-05-06 15:29 39.75414 116.19966 8252 ft 303 kts 130°
2026-05-06 15:29 39.74095 116.22075 8009 ft 296 kts 129°
2026-05-06 15:29 39.72819 116.24114 8008 ft 300 kts 130°
2026-05-06 15:29 39.72028 116.25377 8010 ft 302 kts 129°
2026-05-06 15:30 39.71714 116.25878 8008 ft 302 kts 129°
2026-05-06 15:30 39.68362 116.31223 7986 ft 288 kts 129°
2026-05-06 15:30 39.67137 116.33174 7963 ft 271 kts 129°
2026-05-06 15:31 39.66061 116.34886 7906 ft 257 kts 129°
2026-05-06 15:31 39.65045 116.36742 7711 ft 243 kts 113°
2026-05-06 15:31 39.64827 116.38876 7253 ft 237 kts 81°
2026-05-06 15:32 39.65063 116.41504 6847 ft 231 kts 77°
2026-05-06 15:32 39.65607 116.46977 5923 ft 226 kts 76°
2026-05-06 15:32 39.65797 116.49022 5567 ft 224 kts 76°
2026-05-06 15:33 39.65984 116.51019 5221 ft 222 kts 76°
2026-05-06 15:33 39.66170 116.52999 4876 ft 220 kts 76°
2026-05-06 15:33 39.66354 116.54961 4523 ft 218 kts 76°
2026-05-06 15:33 39.66536 116.56907 4182 ft 216 kts 75°
2026-05-06 15:34 39.66714 116.58815 3811 ft 216 kts 75°
2026-05-06 15:34 39.66969 116.60733 3417 ft 207 kts 62°
2026-05-06 15:34 39.67748 116.62200 3093 ft 191 kts 38°
2026-05-06 15:34 39.68889 116.62787 2891 ft 171 kts
2026-05-06 15:35 39.70081 116.63023 2898 ft 180 kts
2026-05-06 15:35 39.71328 116.63024 2897 ft 180 kts 354°
2026-05-06 15:35 39.72591 116.62867 2911 ft 180 kts 352°
2026-05-06 15:35 39.73820 116.62673 2907 ft 181 kts 352°
2026-05-06 15:36 39.75074 116.62476 2909 ft 181 kts 352°
2026-05-06 15:36 39.76305 116.62282 2915 ft 181 kts 352°
2026-05-06 15:36 39.77522 116.62091 2911 ft 167 kts 352°
2026-05-06 15:36 39.78650 116.61914 2896 ft 161 kts 351°
2026-05-06 15:37 39.79397 116.61797 2897 ft 159 kts 351°
2026-05-06 15:37 39.79902 116.61717 2905 ft 158 kts 352°
2026-05-06 15:37 39.80996 116.61553 2903 ft 158 kts 351°
2026-05-06 15:37 39.82084 116.61382 2899 ft 158 kts 351°
2026-05-06 15:38 39.83164 116.61212 2901 ft 158 kts 351°
2026-05-06 15:38 39.84254 116.61040 2903 ft 158 kts 351°
2026-05-06 15:38 39.85358 116.60865 2906 ft 158 kts 351°
2026-05-06 15:38 39.86454 116.60697 2903 ft 158 kts 352°
2026-05-06 15:39 39.87546 116.60527 2905 ft 158 kts 351°
2026-05-06 15:39 39.88624 116.60357 2905 ft 157 kts 351°
2026-05-06 15:39 39.89701 116.60187 2906 ft 157 kts 351°
2026-05-06 15:39 39.90799 116.60014 2903 ft 159 kts 351°
2026-05-06 15:40 39.91901 116.59847 2901 ft 159 kts 351°
2026-05-06 15:40 39.93006 116.59675 2890 ft 161 kts 351°
2026-05-06 15:40 39.94126 116.59497 2737 ft 161 kts 351°
2026-05-06 15:40 39.95222 116.59325 2514 ft 151 kts 351°
2026-05-06 15:41 39.96206 116.59172 2316 ft 133 kts 351°
2026-05-06 15:41 39.97070 116.59038 2155 ft 122 kts 350°
2026-05-06 15:41 39.97892 116.58908 1999 ft 122 kts 350°
2026-05-06 15:41 39.98764 116.58770 1826 ft 122 kts 350°
2026-05-06 15:42 39.99599 116.58636 1668 ft 124 kts 351°
2026-05-06 15:42 40.00476 116.58498 1489 ft 126 kts 351°
2026-05-06 15:42 40.01336 116.58363 1334 ft 127 kts 351°
2026-05-06 15:42 40.01768 116.58294 1248 ft 128 kts 351°
2026-05-06 15:43 40.02659 116.58157 1082 ft 129 kts 354°
2026-05-06 15:43 40.03552 116.58033 861 ft 130 kts 353°
2026-05-06 15:43 40.04461 116.57867 706 ft 135 kts 352°
2026-05-06 15:43 40.05392 116.57726 592 ft 134 kts 352°
2026-05-06 15:44 40.06335 116.57568 387 ft 138 kts 352°
2026-05-06 15:44 40.07285 116.57423 181 ft 136 kts 352°
2026-05-06 15:44 40.08121 116.57291 117 ft 108 kts 353°
2026-05-06 15:44 40.08617 116.57219 111 ft 55 kts
2026-05-06 15:45 40.08891 116.57321 112 ft 23 kts 44°
2026-05-06 15:45 40.08911 116.57392 114 ft 1 kts 97°
2026-05-06 15:45 40.08910 116.57404 113 ft 2 kts 97°
2026-05-06 15:45 40.08908 116.57426 114 ft 0 kts 90°
2026-05-06 15:46 40.08908 116.57433 115 ft 2 kts 90°
2026-05-06 15:46 40.08908 116.57447 116 ft 0 kts 87°
2026-05-06 15:46 40.07623 116.60340 111 ft 0 kts 43°